GEFSNGP_500_meanwind_150.txt.gz
Wind_Speed
7 8 9 10 11 12 13 13 13 13 14 14 14 15 15 13 12 12 12 12 12 13 13 14 14 14 14 14 15 15 15 14 15 14 14 16 17 20 21 23 24 26 27 27
8 9 10 10 12 13 13 14 14 14 15 15 15 15 14 13 13 13 12 13 13 13 13 14 14 14 14 14 15 16 16 16 17 17 17 18 19 20 21 23 24 25 25 25
11 11 12 12 12 12 13 14 15 15 16 17 16 16 15 14 13 13 14 14 14 14 13 13 13 14 15 15 16 17 17 17 18 18 18 19 20 20 22 22 22 23 24 25
14 14 14 14 14 14 14 14 15 15 16 16 17 15 15 14 14 15 15 15 15 15 15 14 14 15 16 17 18 19 19 19 19 19 19 19 20 21 21 22 22 23 23 23
16 16 16 15 16 17 16 16 16 16 16 16 15 14 14 15 15 16 15 15 15 16 16 16 17 18 18 19 19 20 20 20 20 21 21 21 21 22 22 23 24 25 25 26
18 18 18 18 18 18 18 18 18 18 17 16 16 15 15 16 17 17 16 16 17 17 18 19 20 20 21 20 21 21 21 21 22 22 23 23 24 24 24 25 26 27 28 29
19 20 19 20 20 20 20 20 19 19 19 18 17 18 18 18 18 18 18 19 20 20 21 22 22 22 22 22 23 23 23 24 24 25 25 25 25 25 26 27 28 28 29 31
21 21 20 21 22 22 22 21 21 21 21 21 20 20 20 20 20 20 21 21 22 23 24 24 24 24 24 24 25 25 25 25 25 25 25 25 25 25 26 27 28 28 29 30
23 22 22 22 23 24 24 24 24 23 23 23 22 22 22 22 23 23 24 24 25 26 26 26 26 26 26 26 26 26 27 26 26 26 27 27 27 27 28 28 29 29 29 30
25 24 24 25 25 26 27 26 26 25 24 24 23 24 24 24 25 26 26 27 27 28 28 28 28 28 28 28 28 28 27 27 27 27 28 28 28 29 29 29 30 29 30 30
27 26 27 26 27 27 28 27 27 26 26 25 25 25 26 26 27 28 28 28 29 29 29 29 30 30 30 30 29 29 29 28 28 28 28 28 29 29 29 30 30 30 30 31
29 28 29 27 28 29 29 28 27 27 27 27 27 27 28 28 29 29 30 30 30 30 30 30 31 31 31 31 30 30 29 29 29 29 29 29 29 30 30 31 32 33 33 34
32 31 31 30 29 30 30 29 29 29 29 29 29 29 30 30 31 31 32 32 32 31 32 32 32 32 32 31 31 30 30 30 30 31 31 31 31 31 31 32 33 34 34 35
33 33 32 31 30 30 31 30 30 30 30 30 30 30 31 32 32 33 33 33 32 32 33 33 32 32 32 32 32 31 31 31 31 32 32 33 33 33 33 33 34 35 35 36
34 34 33 32 31 32 31 31 31 31 31 32 32 32 33 33 33 32 32 32 32 32 33 33 33 33 32 32 32 32 32 32 32 33 33 34 34 35 35 35 35 35 36 37
34 34 34 34 33 33 33 32 32 32 33 33 34 34 34 33 33 32 31 31 32 32 32 32 32 32 32 32 33 32 32 33 33 34 34 35 35 35 35 35 36 36 36 37
34 34 35 34 35 35 34 33 34 34 34 34 35 35 34 34 33 32 32 32 32 32 32 33 33 32 32 33 33 33 33 33 34 34 35 35 35 35 36 36 36 37 37 38
34 34 34 34 34 34 34 33 33 34 35 35 35 35 34 34 33 33 33 33 33 32 33 34 34 33 33 33 33 33 34 34 34 35 35 36 36 36 37 37 38 38 39 40
33 33 33 33 33 33 33 33 33 34 35 35 35 34 34 34 34 34 34 34 34 34 34 34 34 34 34 34 34 34 35 35 35 36 36 37 37 37 38 39 39 40 40 41
33 34 34 34 33 33 33 34 34 35 35 35 35 35 35 35 35 34 34 35 35 35 35 35 35 34 34 34 35 35 36 36 36 37 37 38 38 38 39 40 41 41 42 43
33 33 33 33 33 33 33 34 34 35 35 35 35 35 35 35 35 36 36 36 36 36 36 36 35 35 35 35 35 36 36 37 37 37 38 39 39 40 40 41 41 42 42 43
33 33 33 34 34 33 33 34 34 35 35 35 35 35 36 36 36 37 37 37 37 37 37 36 36 36 36 36 36 37 37 37 37 38 38 39 40 40 41 41 41 42 42 42
34 34 34 34 34 34 34 34 34 34 35 35 35 35 35 36 36 36 36 37 37 37 37 37 37 37 37 37 37 38 38 38 38 38 38 39 40 40 40 41 41 41 41 40
36 35 35 34 34 34 34 33 34 34 34 34 34 34 35 35 35 36 36 36 36 36 36 36 37 37 37 38 38 38 38 38 38 38 38 39 39 39 39 39 39 39 39 38
36 36 35 34 34 34 34 34 33 34 34 34 34 34 34 35 35 35 35 36 36 36 36 36 36 37 37 37 37 37 37 38 38 38 38 38 38 38 38 38 38 37 37 37
37 36 35 35 35 35 35 35 35 35 35 35 34 34 35 35 35 35 35 35 35 34 35 35 36 36 36 37 37 37 37 37 37 37 37 37 37 37 38 38 37 36 36 37
37 36 35 35 36 36 36 36 35 35 35 35 36 35 35 35 35 35 35 35 35 35 35 35 35 35 35 35 35 35 36 36 36 37 37 36 36 37 37 37 36 35 35 35

GEFSNGP_500_meanwind_156.txt.gz
Wind_Speed
14 15 15 15 16 17 18 18 19 18 19 19 21 22 22 23 22 22 22 22 22 23 24 24 24 23 23 23 23 23 23 22 22 22 23 23 23 24 23 23 24 24 25 27
15 16 17 17 17 18 19 19 20 20 20 21 23 23 24 24 23 23 23 23 23 23 23 23 22 22 21 22 22 22 22 22 22 23 23 23 23 23 24 24 24 25 26 27
18 18 19 19 19 20 20 21 22 22 21 23 23 23 24 25 24 24 23 23 22 21 21 21 21 20 20 20 21 22 23 23 23 23 23 23 22 23 23 24 25 26 26 27
21 21 21 21 21 22 22 23 24 23 23 23 23 23 23 24 24 24 23 22 21 21 22 21 21 21 21 21 21 22 22 22 22 22 22 22 23 24 24 24 25 26 27 29
23 24 23 23 23 24 24 24 24 24 24 24 24 23 24 25 24 24 24 23 23 22 22 22 22 22 22 22 22 22 22 23 23 22 22 23 23 23 24 25 26 27 28 29
25 26 26 25 26 26 26 25 25 25 25 25 25 25 25 25 25 24 24 24 24 24 24 24 24 24 24 24 23 23 23 24 24 24 25 24 25 25 26 27 28 28 29 30
27 28 27 27 27 27 27 28 27 27 27 26 26 27 26 25 24 24 25 25 25 25 25 25 25 25 25 24 24 24 25 25 25 25 26 26 26 27 27 28 29 30 30 30
29 30 28 28 29 29 29 29 29 29 29 28 28 28 27 26 26 26 26 26 26 25 25 25 25 25 25 25 26 25 26 27 27 28 28 29 29 29 29 29 29 30 30 30
31 31 30 30 30 31 31 31 31 30 30 30 30 29 29 28 27 27 27 27 27 26 26 26 26 26 26 27 27 27 27 28 29 29 29 29 30 30 30 29 29 29 29 29
34 32 32 32 32 32 32 33 33 32 31 31 31 30 30 29 28 29 29 28 28 28 27 27 28 28 28 29 29 29 30 30 29 29 29 29 29 29 29 28 28 28 28 29
36 34 34 34 34 34 34 34 34 33 33 32 32 31 30 30 30 30 30 29 29 29 29 29 29 29 30 30 31 31 30 30 29 29 29 29 29 28 28 28 29 29 29 30
37 36 37 36 35 35 35 35 35 34 34 33 33 31 31 31 31 31 31 30 30 30 30 31 31 31 31 31 31 30 29 29 29 29 29 29 29 28 28 29 30 31 31 32
38 38 38 37 37 37 36 36 36 36 35 34 33 33 32 32 32 32 32 31 31 31 31 32 32 32 32 31 31 30 29 29 29 29 29 29 29 29 29 30 31 32 32 33
38 38 38 37 37 37 37 37 37 36 35 35 34 33 33 33 33 33 33 33 32 32 32 33 33 33 33 32 31 30 30 31 30 30 30 30 30 31 31 31 32 32 33 34
38 39 38 38 38 37 37 37 37 36 36 35 34 34 34 34 34 33 33 33 33 33 33 34 34 34 33 33 32 32 32 32 31 31 31 31 31 32 32 33 34 34 35 35
38 38 38 38 38 38 37 37 37 36 35 35 34 34 34 33 33 33 33 34 34 34 34 34 34 34 33 33 33 33 33 32 32 32 32 33 33 34 34 35 35 36 36 37
37 36 36 36 36 36 36 36 36 36 35 35 35 34 34 33 33 33 34 35 35 35 35 35 34 34 34 34 33 33 33 33 34 34 34 35 35 36 36 36 37 37 38 38
36 36 35 35 35 35 35 35 35 35 36 35 34 34 34 34 34 34 35 35 36 36 36 36 35 35 34 34 34 34 34 34 35 35 36 36 37 37 38 38 38 38 39 39
35 34 34 34 35 34 34 35 35 35 35 35 34 35 35 35 35 35 36 36 36 36 36 36 35 35 35 35 34 35 35 36 36 37 37 37 38 39 39 39 39 39 39 39
34 34 35 35 35 34 34 35 35 35 35 35 35 35 35 35 36 36 36 36 36 36 36 36 36 36 36 35 35 35 36 36 37 37 38 38 39 40 40 40 39 40 40 40
35 35 35 35 35 35 35 35 35 35 35 35 35 35 36 36 36 36 35 35 35 35 35 35 36 36 36 36 36 36 36 37 37 37 38 39 39 39 39 39 39 40 40 40
36 36 36 36 36 35 35 36 36 36 35 36 36 36 36 36 36 36 35 35 35 35 35 35 35 35 35 36 36 36 36 37 37 38 38 39 39 39 39 40 40 40 40 40
38 38 37 37 37 37 37 37 37 36 36 36 36 36 35 35 35 35 35 35 35 35 35 35 35 36 36 36 37 37 37 37 38 38 38 38 38 38 39 39 39 39 39 39
38 38 38 39 38 38 37 38 38 37 36 36 36 36 36 36 35 35 35 34 35 35 35 35 36 36 36 37 37 37 37 37 37 38 38 38 38 38 38 38 38 38 39 39
39 39 39 39 39 39 39 39 39 39 38 37 37 37 37 37 36 35 35 34 34 35 35 35 36 36 36 36 36 36 36 36 37 37 37 37 37 38 38 38 38 38 38 38
40 40 40 39 39 39 39 39 39 39 39 39 39 38 37 37 36 36 35 35 35 35 35 35 36 36 35 35 35 35 36 36 35 35 36 36 36 37 37 37 37 37 37 37
40 39 39 39 38 38 38 38 38 38 38 38 37 36 36 35 35 35 35 34 34 34 34 34 34 34 34 33 34 34 34 34 34 34 35 35 36 36 36 36 36 36 35 35

GEFSNGP_500_meanwind_162.txt.gz
Wind_Speed
16 16 16 16 17 18 19 19 20 20 21 22 23 23 23 24 25 25 25 25 25 26 27 27 28 28 28 27 27 27 27 27 27 27 28 27 27 27 27 28 28 29 29 30
18 18 18 18 18 20 20 20 21 22 22 24 25 25 25 25 25 25 25 26 26 26 27 27 27 27 27 28 28 27 27 27 27 27 27 28 28 27 27 28 28 29 29 30
21 20 21 20 20 21 21 22 23 23 24 25 26 25 25 25 25 26 25 26 26 26 26 27 27 27 27 27 27 27 26 26 26 26 27 27 27 27 27 27 28 28 28 28
24 23 23 22 22 22 23 23 24 25 26 26 26 26 26 26 26 27 27 27 27 26 27 27 27 28 28 28 27 26 25 25 25 25 26 26 26 26 26 27 27 27 27 28
26 26 26 24 25 25 25 25 26 27 27 27 27 27 27 27 27 28 27 27 27 27 27 27 28 28 28 28 27 25 25 25 25 25 25 25 26 26 27 27 27 27 27 28
28 29 28 27 27 27 28 28 28 28 28 27 27 27 27 28 27 27 27 28 28 28 28 28 27 27 27 27 26 25 25 24 24 25 25 25 26 26 26 27 27 27 27 28
30 31 30 28 29 30 30 30 29 29 28 27 28 28 28 29 28 28 29 29 29 29 28 28 27 27 27 27 26 25 25 25 25 25 26 26 26 25 25 25 26 27 27 27
32 32 31 30 30 31 31 31 30 30 29 28 28 29 28 28 28 28 28 29 29 29 28 28 28 27 27 26 25 26 26 25 26 25 25 25 25 25 25 26 26 26 26 26
34 34 32 31 31 32 32 32 31 31 31 30 30 30 29 29 29 28 28 29 29 29 28 27 27 27 26 25 25 26 25 26 26 26 26 26 25 25 25 25 25 25 25 26
36 35 34 34 34 34 34 33 32 32 32 32 32 32 31 30 29 29 29 29 29 28 27 27 26 26 26 26 26 26 26 26 27 27 26 26 26 26 26 26 26 26 27 27
37 36 36 36 35 35 35 34 34 33 33 33 33 33 32 31 30 30 30 30 30 29 28 28 27 26 26 27 27 27 27 27 27 27 27 26 26 26 27 27 27 27 27 28
38 37 38 37 36 36 36 35 35 34 34 34 34 33 32 31 31 31 30 30 29 29 29 29 28 28 28 28 28 27 27 28 28 28 28 27 27 28 28 28 29 29 29 29
39 39 39 38 37 37 36 35 35 35 35 34 33 32 32 31 31 31 31 30 30 30 30 30 29 29 29 29 28 28 28 28 28 28 29 29 29 29 29 29 30 30 30 29
40 40 39 38 37 37 36 36 36 35 35 34 33 33 32 32 32 31 31 30 30 30 30 30 29 29 29 29 29 30 30 30 30 30 30 30 31 31 31 31 31 30 30 30
39 39 38 37 37 37 37 36 35 35 34 34 33 32 32 31 31 31 31 30 30 30 30 30 30 30 31 30 30 30 30 31 31 32 32 32 32 32 32 32 32 32 32 32
38 37 37 36 36 36 35 34 33 33 32 31 31 30 30 30 30 30 30 29 29 29 30 30 30 31 31 31 30 30 31 31 32 32 32 32 32 32 32 32 33 33 33 33
36 36 35 35 34 34 33 33 32 32 31 30 30 30 30 30 30 30 30 29 29 29 30 30 30 30 31 31 31 31 31 32 32 32 32 32 32 32 32 33 33 33 34 34
36 35 35 34 34 33 32 32 31 30 30 30 30 30 29 29 30 30 30 29 30 30 31 31 31 31 32 32 32 32 32 32 32 32 32 32 32 32 33 33 33 34 34 35
35 34 34 34 33 32 31 31 31 31 31 31 31 31 30 30 30 31 30 30 30 31 31 32 32 32 33 33 33 32 33 33 33 33 33 33 33 33 33 33 34 35 35 36
34 34 34 33 33 32 31 32 32 32 32 32 32 32 31 31 32 32 32 31 32 32 32 33 33 34 34 34 34 34 34 34 34 34 34 34 34 34 34 34 35 36 36 37
35 36 36 35 34 33 33 33 32 32 32 33 33 33 32 33 33 33 33 33 33 33 34 34 34 35 35 35 35 35 35 34 34 34 34 34 34 34 35 36 36 37 37 38
36 36 36 35 35 35 34 34 34 34 34 34 34 34 33 33 34 34 35 34 34 35 35 35 35 35 35 35 35 35 34 34 34 34 34 34 34 35 35 36 36 37 37 38
36 36 36 36 36 35 35 35 36 36 35 35 35 35 35 34 35 35 36 35 36 36 36 35 35 35 35 35 34 34 34 34 34 34 34 34 34 35 35 36 36 36 37 37
35 35 35 35 35 35 35 36 36 36 35 35 35 36 37 36 36 36 36 37 37 36 36 35 35 35 34 34 33 33 33 33 34 34 34 34 35 35 35 36 36 36 36 36
36 36 35 35 35 35 35 35 35 35 35 35 35 36 37 37 37 37 37 37 36 36 35 35 34 34 33 33 33 33 33 32 32 33 33 33 34 34 34 35 35 35 35 35
36 36 36 35 34 34 34 34 34 34 34 34 35 35 35 36 36 36 36 35 35 34 34 33 33 33 32 32 32 31 31 31 31 31 31 32 32 33 33 33 33 34 33 33
36 36 35 34 33 33 33 33 33 33 34 34 33 33 33 34 34 34 34 33 33 32 32 31 31 31 31 31 30 30 30 30 30 30 31 31 31 32 32 32 32 31 31 31

GEFSNGP_500_meanwind_168.txt.gz
Wind_Speed
21 21 22 22 22 23 24 25 26 25 26 26 28 28 29 30 30 31 32 32 33 33 34 34 35 35 36 36 36 37 37 37 36 36 35 34 34 34 33 33 32 32 31 31
23 23 24 24 24 25 26 27 27 28 28 28 29 30 30 31 32 33 33 34 34 35 35 35 35 36 35 36 36 36 36 36 36 35 34 33 33 33 32 32 32 32 32 31
26 26 27 26 26 27 28 28 29 29 29 30 31 32 31 32 33 33 34 35 35 36 35 36 36 35 35 35 36 35 35 35 35 34 34 34 33 32 32 32 32 32 32 32
29 29 30 29 28 29 29 29 30 30 31 31 32 32 32 32 33 33 34 35 36 35 35 35 35 35 35 36 36 35 35 34 33 33 33 33 33 32 32 32 31 32 32 32
32 32 32 30 30 30 30 30 31 31 31 32 32 32 32 33 33 34 34 34 35 35 35 35 35 35 35 35 35 35 34 33 32 32 32 32 31 31 31 30 30 30 30 30
33 34 34 32 32 33 33 32 32 32 32 33 33 33 32 33 34 34 34 35 34 34 35 35 35 35 34 34 34 34 33 32 31 31 31 30 30 29 29 29 29 29 29 29
34 36 36 34 34 34 35 35 35 35 35 35 35 34 34 34 35 35 35 35 35 34 34 34 33 33 32 32 32 32 31 31 30 30 30 30 29 29 28 28 28 28 28 29
37 38 37 36 36 36 36 37 37 36 36 37 36 36 36 35 35 36 36 36 35 35 34 33 32 32 31 31 31 31 31 30 29 28 28 28 28 29 28 28 28 28 27 28
40 39 38 38 37 37 38 38 38 38 38 37 37 37 37 36 36 36 36 36 35 34 34 32 32 31 31 31 31 31 30 29 28 28 27 26 26 27 27 28 28 28 28 27
41 40 39 39 39 39 39 39 39 38 38 38 38 38 37 37 37 37 36 36 35 35 34 32 31 31 31 31 31 30 29 28 28 28 27 26 27 27 27 27 28 28 28 28
42 41 41 40 40 40 40 40 39 39 40 39 38 38 38 38 37 37 36 36 36 35 34 33 32 32 32 31 31 30 29 28 28 27 27 27 27 26 27 27 28 28 28 29
43 41 43 42 41 41 42 41 40 40 40 39 39 39 39 38 38 37 37 37 36 35 35 34 32 32 32 31 31 30 29 28 28 28 27 27 27 27 27 28 28 28 28 29
43 42 43 43 42 42 42 42 41 41 41 40 39 39 38 38 38 38 38 37 36 36 35 35 33 33 32 32 31 30 29 29 28 28 28 28 28 28 28 28 28 29 30 30
42 42 43 42 42 41 41 41 41 40 40 39 38 38 37 37 37 37 37 36 36 35 35 34 34 33 33 32 31 31 30 29 29 29 28 28 29 29 29 29 30 30 31 31
41 41 41 41 40 40 40 40 40 40 39 39 38 38 37 36 36 36 36 35 34 33 33 33 32 32 32 32 31 30 30 29 29 29 29 29 30 30 30 31 31 32 32 32
40 40 41 40 39 39 39 40 40 39 38 38 37 36 36 35 35 35 34 34 33 32 32 31 31 31 31 30 30 29 29 29 29 29 29 30 30 31 31 31 32 32 33 33
39 39 39 38 38 38 38 38 38 37 36 36 35 35 34 35 35 34 34 33 32 31 31 31 30 30 30 30 30 29 29 29 29 30 30 30 31 32 32 33 33 33 34 34
38 38 38 38 39 38 38 37 37 36 36 35 34 34 34 34 34 35 34 33 33 32 32 32 31 31 31 30 30 30 30 30 31 31 31 32 32 33 33 34 35 34 34 34
37 37 37 37 37 37 37 37 37 36 36 36 35 35 35 35 35 34 34 34 33 33 33 33 33 32 32 31 32 32 32 32 32 32 33 33 34 34 34 35 35 34 34 34
37 37 37 38 38 38 38 38 38 37 37 36 36 37 36 36 36 36 35 35 35 35 35 34 34 33 33 34 33 33 33 33 34 34 34 34 35 35 35 35 35 35 34 34
37 37 38 38 38 38 38 39 39 38 38 37 37 37 36 36 36 36 36 35 35 36 35 35 35 35 35 35 35 35 35 35 35 36 36 35 35 35 35 35 35 35 34 34
36 36 36 37 37 37 37 38 38 38 38 37 37 36 36 36 36 36 36 36 35 35 35 36 36 36 36 36 36 36 36 36 36 37 37 36 36 36 36 36 35 35 35 35
36 36 36 37 37 37 37 37 37 37 37 36 35 35 35 35 35 35 34 35 35 35 36 36 36 36 36 36 36 36 36 36 37 37 36 36 36 36 36 35 35 35 35 35
36 36 36 36 37 37 37 37 38 37 36 35 35 35 35 34 34 34 34 34 35 35 35 36 36 36 36 36 36 36 36 35 35 35 35 35 35 34 34 33 33 33 33 34
36 36 36 36 36 36 36 37 37 36 36 35 35 34 34 34 34 35 35 34 35 35 35 35 36 36 36 36 36 35 35 34 34 33 33 33 32 32 32 32 33 33 33 33
36 36 36 35 34 34 35 35 34 34 34 34 33 33 34 34 34 34 35 35 35 35 35 35 35 35 35 34 33 33 33 33 32 31 31 31 31 31 31 32 32 32 32 32
36 35 35 34 34 34 34 34 33 32 32 32 32 32 32 33 33 33 33 33 33 33 33 33 33 32 32 32 31 31 31 31 30 30 30 30 30 31 31 31 31 31 30 30

GEFSNGP_500_meanwind_174.txt.gz
Wind_Speed
26 26 26 26 25 26 27 27 28 27 28 28 29 29 30 30 30 30 30 31 31 32 34 35 36 37 37 38 38 39 40 41 41 42 42 42 42 42 42 42 42 41 41 41
27 26 27 27 25 26 27 28 29 29 28 29 31 31 31 31 32 32 32 32 33 33 34 35 36 37 37 38 39 40 41 42 42 42 42 41 41 41 41 40 39 39 39 39
29 28 29 29 26 26 27 28 29 29 29 30 31 31 32 33 33 34 34 34 34 34 35 35 36 37 38 39 39 40 40 41 42 42 41 41 40 39 38 38 38 38 37 37
32 31 31 29 28 28 28 28 29 30 30 31 32 32 33 34 35 35 35 35 35 35 36 36 37 37 37 38 39 39 40 40 41 41 40 39 38 37 37 37 37 37 37 36
34 34 32 29 29 29 30 30 30 30 31 32 33 33 33 34 34 34 35 35 35 36 36 36 37 37 37 38 38 38 38 39 39 38 37 36 35 35 35 35 35 35 35 34
35 36 35 32 32 32 32 32 31 32 33 34 34 34 33 33 34 34 35 35 35 36 36 36 36 36 36 36 37 37 37 36 35 35 34 33 33 34 34 34 34 34 33 33
36 37 36 34 33 33 34 34 34 34 34 34 34 34 34 34 34 35 35 36 36 36 36 35 35 35 36 36 36 36 35 35 35 34 33 34 34 34 33 33 33 32 32 32
37 37 36 34 35 36 36 36 36 36 36 36 36 36 36 36 37 37 36 36 37 36 36 36 36 36 36 35 35 35 34 34 35 34 33 33 33 33 32 32 31 31 31 31
39 38 37 37 38 38 38 37 37 38 38 38 38 38 38 38 38 38 37 37 37 37 37 36 36 36 35 35 35 34 34 34 33 33 32 32 32 31 31 31 31 30 30 30
41 39 38 39 40 40 40 40 40 40 40 40 40 40 39 39 38 38 38 38 38 37 37 36 35 35 35 35 35 34 33 33 32 32 32 32 32 32 31 31 30 30 29 29
42 41 41 41 41 42 42 42 43 43 42 41 41 40 40 39 39 39 39 39 39 38 37 36 35 35 35 35 34 33 32 31 30 30 31 31 31 30 30 29 29 28 29 29
42 41 43 43 42 43 44 43 43 43 42 41 41 41 41 40 40 39 39 38 38 37 36 35 35 34 34 34 33 32 31 30 30 30 29 29 29 29 29 29 28 28 29 28
43 43 44 43 43 43 43 43 43 43 42 41 40 40 40 39 38 38 37 37 36 36 35 34 34 34 34 33 32 32 31 30 29 29 28 27 27 28 28 28 28 28 28 28
43 43 43 42 42 41 41 42 41 41 41 40 40 40 39 38 37 37 37 36 36 35 35 34 33 33 33 32 31 31 31 30 29 29 28 27 27 27 27 27 28 28 28 28
40 41 41 40 40 39 40 40 39 39 39 39 39 39 39 38 36 36 35 35 35 34 34 33 32 32 32 31 30 30 30 29 29 28 28 28 27 27 27 27 27 27 28 28
38 38 39 39 39 39 39 38 38 37 38 38 38 38 38 38 37 36 36 36 35 35 34 33 32 31 31 30 30 30 29 28 28 28 28 28 28 28 27 27 27 28 28 29
36 36 37 37 37 37 37 38 37 37 37 38 38 37 37 37 36 36 36 36 35 35 34 33 32 31 31 30 30 29 29 28 28 28 28 28 28 28 27 27 27 28 28 29
35 35 35 35 36 36 37 37 38 38 37 37 37 37 37 36 36 35 35 35 35 35 34 33 33 32 31 30 30 29 29 28 28 28 28 28 28 28 28 28 28 28 29 30
33 33 33 34 34 35 36 37 37 37 36 36 36 36 36 36 36 35 35 35 35 34 34 34 34 33 32 31 31 30 29 29 29 29 29 29 29 29 29 29 30 30 30 31
34 34 34 34 34 34 35 35 35 36 35 36 36 36 36 35 35 35 34 34 33 33 33 33 32 32 32 31 31 30 30 29 29 30 30 30 30 30 30 31 32 32 31 31
36 36 35 35 35 35 35 35 34 34 34 34 34 33 34 33 33 33 32 32 32 32 32 32 31 31 31 30 30 30 30 30 31 31 31 31 31 32 32 32 32 32 32 32
35 35 35 35 35 34 34 34 34 34 33 33 32 32 32 32 31 31 31 30 30 30 30 31 30 30 29 30 30 31 32 32 32 32 32 32 33 33 33 33 33 33 33 33
34 34 34 34 34 34 33 33 33 33 32 32 31 31 31 30 30 30 29 29 29 29 30 30 30 30 30 30 31 32 32 33 33 33 33 33 33 34 34 34 34 34 34 34
33 33 33 33 33 33 33 33 32 32 32 31 31 31 30 30 29 29 29 29 29 30 29 29 30 31 31 31 32 33 33 34 34 34 34 34 34 35 35 35 34 34 34 33
33 32 33 33 33 33 33 32 31 31 31 31 31 30 30 30 29 29 28 28 29 29 30 30 30 31 32 32 33 33 34 34 34 35 35 35 34 34 34 34 34 34 33 32
33 32 32 33 33 33 32 32 31 31 31 31 31 30 30 30 30 29 29 29 29 30 30 30 30 30 31 32 32 33 33 33 33 34 34 34 33 33 33 33 32 31 31 30
33 32 32 32 32 32 32 31 31 31 31 31 31 30 30 30 30 30 29 28 28 28 28 28 29 29 30 30 30 31 31 31 31 31 31 31 31 31 31 31 30 30 29 29

GEFSNGP_500_meanwind_180.txt.gz
Wind_Speed
31 32 32 31 31 31 32 32 32 31 31 30 32 33 33 34 35 35 35 36 37 38 38 39 39 40 41 42 43 43 43 44 44 45 46 46 46 46 46 46 46 46 46 46
35 34 35 35 33 33 34 34 34 34 33 34 35 36 36 36 36 36 37 38 38 38 39 39 40 41 41 42 42 42 43 43 44 44 45 45 45 46 46 46 46 45 45 45
38 37 39 38 35 35 35 35 36 36 35 36 37 38 37 37 37 38 38 39 39 39 40 40 40 40 41 41 42 42 43 44 44 44 44 44 45 45 45 44 44 44 44 44
40 40 40 38 37 36 36 36 37 37 37 38 38 38 38 38 38 38 39 39 39 40 40 40 40 41 41 42 43 43 44 45 45 44 44 44 44 44 43 42 42 42 43 43
42 43 43 40 39 38 38 38 37 37 38 38 38 38 38 38 38 38 38 39 39 40 40 41 41 41 42 42 43 43 44 45 45 44 44 44 43 42 41 41 41 41 41 41
43 44 44 42 40 40 40 40 38 39 39 39 38 39 38 38 38 38 39 39 40 40 41 42 42 42 43 43 43 44 44 44 44 44 43 42 42 41 40 40 40 39 39 39
43 44 44 42 41 41 41 40 40 41 40 40 40 40 40 39 39 39 40 40 41 41 42 43 43 43 44 43 44 44 44 44 44 42 41 41 41 40 39 39 38 38 37 38
44 44 43 41 41 41 41 42 42 42 42 41 41 42 41 41 40 40 41 42 42 42 42 43 44 44 43 43 44 44 43 42 41 40 40 39 39 39 38 38 37 37 37 36
44 44 43 42 42 41 42 42 43 43 43 43 43 43 43 43 43 43 43 43 43 43 43 43 44 44 44 43 43 42 41 39 38 38 38 38 38 37 37 37 36 36 35 34
45 43 42 42 42 42 43 44 44 44 44 45 45 44 45 45 45 45 44 44 44 44 44 44 44 44 43 42 42 41 40 38 37 37 37 37 37 37 37 36 36 35 34 33
45 44 44 44 44 44 45 45 45 46 46 46 46 46 46 46 46 45 45 44 44 44 44 43 42 42 41 41 40 39 38 38 37 37 36 36 36 36 35 35 34 34 33 33
46 45 46 45 44 45 45 45 45 45 45 46 46 46 46 45 45 45 44 44 43 43 43 41 40 40 39 39 37 37 36 36 36 36 35 35 35 34 34 34 33 33 33 33
45 45 46 46 46 45 46 46 45 45 45 45 45 45 44 44 44 44 43 42 42 41 41 40 39 38 38 37 36 35 35 35 34 34 34 34 33 33 33 32 32 32 32 32
44 45 45 45 45 45 45 44 44 44 44 43 43 43 43 43 43 42 41 41 40 40 39 39 38 37 37 36 36 35 35 34 33 33 32 32 32 31 31 31 31 32 31 31
42 42 42 42 42 42 42 42 42 42 42 42 42 42 41 41 41 40 40 40 39 39 39 39 39 37 37 36 35 34 34 34 33 32 32 32 31 31 31 31 31 31 31 30
39 39 39 40 40 40 41 41 41 41 41 41 40 40 40 39 39 39 39 40 39 39 39 39 38 38 37 36 35 34 33 33 33 32 32 32 31 31 31 31 30 30 30 30
36 37 37 38 38 39 39 40 40 40 40 39 39 39 39 39 38 39 39 40 39 39 38 38 38 37 37 36 36 35 34 33 33 33 32 31 31 31 31 31 30 30 30 29
35 35 35 36 36 37 37 38 38 38 38 38 39 39 39 39 39 39 39 39 39 38 37 37 37 36 35 35 34 34 34 33 32 32 31 31 31 31 30 30 30 30 29 28
34 34 34 34 35 35 36 36 36 37 37 37 38 38 38 38 38 38 38 38 37 36 35 35 35 35 35 34 34 34 34 33 33 32 31 31 31 30 30 29 29 29 28 27
33 33 34 34 34 35 35 35 35 35 35 35 36 36 36 37 37 37 37 36 35 34 34 34 34 34 34 33 33 33 33 33 32 31 31 30 30 30 30 29 29 28 28 28
34 34 34 34 34 34 34 34 34 33 33 33 33 34 34 35 35 35 35 34 33 33 33 33 32 32 32 32 32 32 32 31 30 30 29 29 29 29 29 29 29 29 29 29
34 34 34 34 34 34 33 33 33 33 32 32 32 33 33 33 33 33 33 33 32 32 32 32 32 32 31 31 30 30 30 30 29 29 29 29 29 30 29 29 29 30 30 30
33 34 34 34 34 33 33 32 32 32 32 32 32 32 32 32 32 32 32 31 31 31 31 31 31 31 31 30 30 29 29 29 29 29 29 29 30 30 30 30 30 30 31 31
33 33 33 33 33 32 32 31 31 31 31 31 31 32 32 31 31 31 31 30 30 30 30 30 30 30 30 29 29 29 29 29 29 29 29 30 30 30 31 31 31 31 31 31
33 33 34 34 33 32 31 31 31 30 30 30 30 30 30 30 30 29 29 29 29 29 29 29 29 29 29 29 29 29 29 29 29 29 29 30 30 30 31 31 31 31 31 31
33 33 33 33 32 31 31 31 31 30 30 29 29 29 29 29 30 29 29 29 30 29 29 28 28 28 28 28 28 28 28 28 28 29 29 29 30 29 30 30 31 31 30 30
32 31 32 31 31 31 32 32 31 29 29 29 29 28 29 29 30 30 30 29 29 28 27 27 26 26 26 26 26 26 27 27 27 27 27 27 27 28 28 29 29 29 30 30

GEFSNGP_500_meanwind_186.txt.gz
Wind_Speed
33 33 34 33 33 33 33 33 34 32 31 31 33 33 33 34 34 35 36 37 37 38 39 39 40 40 41 42 42 42 43 44 45 46 46 46 46 46 47 47 47 48 48 49
36 36 36 36 35 35 35 35 35 35 34 34 35 35 36 36 36 36 37 38 39 39 40 41 42 42 43 43 43 43 44 45 45 45 46 46 47 47 47 48 48 49 48 49
39 38 39 39 36 37 37 36 36 37 36 37 38 38 38 38 38 38 38 39 39 40 41 42 42 42 42 42 43 44 44 44 45 46 46 47 47 48 48 48 48 48 47 47
41 41 41 39 38 38 38 38 39 39 39 39 40 40 40 40 39 40 40 40 40 41 41 41 42 43 43 43 44 44 44 45 46 46 47 46 47 47 47 47 47 47 47 47
42 42 42 40 40 40 40 41 41 41 40 41 41 41 41 40 40 40 40 41 41 41 42 42 43 43 43 43 44 45 45 45 46 46 46 45 45 45 46 46 46 46 45 45
42 43 43 42 41 42 42 42 41 41 41 41 41 42 41 42 41 41 41 42 42 42 42 43 43 43 43 44 45 45 45 45 46 45 45 44 44 44 45 45 44 44 43 43
43 44 44 43 42 43 43 43 42 43 43 42 42 42 42 42 42 43 43 43 43 43 43 43 43 43 44 44 44 44 44 44 44 44 43 43 43 43 43 43 42 42 42 42
42 43 43 42 42 42 43 44 44 44 44 43 43 43 42 42 43 43 43 44 44 44 44 44 44 44 44 44 44 43 43 43 42 42 42 42 42 42 42 42 41 41 41 41
43 43 42 42 42 43 44 44 44 44 44 44 45 45 44 44 44 44 44 44 44 44 44 44 44 44 44 44 44 43 43 42 42 42 42 42 41 41 41 40 40 40 40 39
43 42 41 42 43 44 44 44 44 44 44 44 44 44 44 43 43 44 44 44 44 43 43 43 44 44 43 43 43 42 42 41 41 40 41 41 40 40 39 39 39 39 39 38
43 42 43 43 43 43 43 44 44 44 44 44 44 44 44 43 43 44 44 44 43 43 42 42 42 42 42 42 42 42 41 40 40 39 39 39 39 39 39 38 38 38 38 38
43 42 43 42 42 42 42 42 42 42 42 42 43 43 42 42 42 42 42 42 42 42 42 41 41 41 42 42 41 41 40 39 39 38 38 38 38 38 37 37 37 37 37 36
42 42 43 43 42 42 42 41 41 41 41 42 42 42 41 40 40 39 40 40 41 41 40 40 39 39 39 40 40 39 38 38 38 38 37 37 37 37 36 36 36 36 35 35
42 42 42 41 41 41 41 40 40 40 40 40 40 40 40 39 39 39 39 40 40 39 38 38 37 37 38 38 38 38 37 37 37 37 37 37 36 36 36 35 35 35 35 34
40 40 39 39 38 39 39 39 38 38 38 38 39 39 40 40 40 39 39 39 39 38 38 37 37 37 37 38 37 37 37 37 37 37 37 37 36 36 35 35 34 34 34 33
37 37 37 37 36 36 36 37 37 37 37 38 39 39 39 40 40 39 39 39 39 38 38 38 37 37 37 37 37 36 36 36 36 37 36 36 36 35 34 34 33 33 32 31
35 35 35 35 35 35 35 36 36 36 36 37 38 38 38 38 38 38 38 39 39 39 39 38 38 38 37 37 36 36 35 35 36 35 35 35 34 33 32 32 31 31 31 30
33 33 34 34 34 34 34 34 34 35 35 35 36 36 36 36 36 36 37 37 37 37 38 38 37 37 36 36 36 36 35 35 34 34 34 33 33 32 32 31 30 30 29 29
30 31 31 31 32 32 32 32 33 33 33 34 34 34 34 34 34 34 35 35 35 35 35 36 36 36 35 35 35 35 34 34 33 33 33 32 32 32 31 31 30 29 29 29
29 29 30 30 30 30 30 31 31 31 31 32 32 32 32 32 32 32 32 32 32 33 34 34 34 33 33 33 33 33 33 33 33 32 32 31 31 31 30 30 29 29 29 28
27 28 29 29 29 30 30 30 30 30 30 31 31 31 31 31 31 31 31 31 31 32 32 32 31 31 31 30 30 30 30 31 31 31 30 30 30 29 29 29 29 28 28 28
28 28 28 28 29 29 29 30 30 29 29 29 29 30 30 30 30 31 30 30 29 30 30 30 30 30 29 29 28 29 29 29 29 30 30 29 29 29 29 28 28 28 27 26
28 28 28 28 29 29 29 29 29 29 29 29 29 29 29 29 29 29 28 27 28 27 27 28 28 28 28 28 28 28 28 28 28 28 28 28 29 28 27 27 27 26 26 25
28 28 29 29 29 29 29 29 29 29 29 29 29 29 29 28 27 27 26 26 26 26 26 26 26 26 27 27 27 27 27 27 27 27 27 27 26 26 26 25 24 24 24 24
29 29 29 30 30 30 29 29 29 29 29 28 28 27 26 26 25 24 24 24 25 25 25 24 25 25 26 26 26 26 26 25 25 25 25 25 25 25 24 24 24 23 23 23
29 29 29 29 29 28 28 28 28 27 26 25 24 24 24 24 24 24 23 23 23 23 23 23 23 24 24 25 24 24 24 24 23 22 22 23 23 23 23 23 23 23 23 23
29 28 28 27 26 26 26 26 26 25 24 24 23 24 24 24 24 23 23 23 23 23 23 23 23 23 23 22 22 22 21 21 20 20 20 21 21 21 22 23 23 23 23 23

GEFSNGP_500_meanwind_192.txt.gz
Wind_Speed
36 36 36 36 35 35 36 36 37 35 35 33 35 36 37 37 37 38 38 38 39 39 39 40 40 41 41 42 43 43 44 44 45 46 47 47 48 49 49 49 49 50 50 50
39 38 39 40 39 38 38 39 39 39 38 37 38 39 39 39 40 40 40 40 41 41 42 42 42 43 43 44 45 45 45 45 46 47 48 48 49 50 50 50 50 50 51 51
42 41 43 43 40 40 41 40 40 41 40 40 41 41 41 41 41 42 42 42 42 43 44 44 44 45 45 46 46 46 46 46 47 48 49 50 50 51 51 51 51 51 51 50
44 44 45 43 42 42 43 42 42 42 42 42 43 42 42 42 42 43 43 44 44 45 45 45 46 46 46 46 46 47 47 48 48 49 49 50 51 51 52 52 52 51 51 51
44 45 45 43 42 43 43 43 42 43 43 44 44 44 43 44 44 44 44 45 45 46 46 46 46 47 47 47 47 47 48 49 49 49 50 50 50 51 51 51 50 50 50 50
44 45 45 43 43 43 44 44 43 43 43 44 44 45 45 46 46 46 46 46 46 46 47 46 47 47 47 47 48 48 48 49 49 49 50 50 49 49 49 49 49 48 48 48
43 45 45 44 44 44 44 45 44 45 45 45 45 46 46 46 47 47 47 47 47 47 46 46 46 47 47 48 48 49 49 49 49 49 49 49 48 48 47 47 47 47 46 47
43 45 45 44 44 45 45 45 46 46 46 46 47 47 47 47 47 47 47 47 46 46 46 46 46 47 47 47 48 48 48 48 48 47 47 47 46 46 46 46 46 46 46 46
44 44 44 44 44 45 45 46 46 46 47 47 47 48 48 48 47 47 47 47 47 47 46 46 46 47 47 47 47 47 46 46 46 46 45 45 45 45 45 45 45 44 44 44
43 43 44 44 44 45 45 46 46 46 47 47 47 47 48 48 47 47 47 46 46 47 46 46 46 46 46 45 45 45 44 44 44 44 43 43 43 44 44 43 43 43 43 43
43 43 44 44 45 46 46 46 46 47 47 47 47 47 47 47 46 46 46 46 46 45 45 45 45 45 44 44 44 44 44 44 43 43 43 42 42 42 42 42 42 42 41 42
44 44 45 45 45 45 45 45 46 46 46 46 46 46 45 45 46 46 46 45 45 45 44 44 44 44 44 44 43 43 43 43 42 42 42 42 42 41 41 41 40 40 40 41
44 44 45 45 45 45 45 44 44 44 44 44 44 45 45 45 45 45 45 44 44 44 43 43 42 42 42 42 43 43 42 42 41 41 41 41 41 41 40 40 40 40 40 40
43 44 43 43 43 44 45 45 44 44 44 44 44 44 44 44 43 43 43 42 42 42 42 42 41 41 41 42 42 42 42 41 40 40 40 40 40 40 40 40 40 40 40 40
41 42 42 42 42 42 43 43 43 44 44 43 43 43 42 42 42 42 41 41 41 41 41 41 41 41 41 42 42 41 41 40 39 39 39 38 38 39 39 39 39 39 39 38
40 41 42 42 42 42 42 42 42 42 42 41 41 42 41 40 40 40 40 40 40 40 40 40 40 40 40 40 40 39 38 38 38 38 37 37 37 37 37 37 37 37 36 35
39 39 39 39 39 40 40 40 40 40 40 40 40 39 39 39 39 39 39 39 39 39 39 38 38 38 38 38 38 38 37 37 37 37 37 36 36 36 37 36 36 35 33 33
34 35 35 36 36 36 36 36 37 37 37 37 38 38 38 38 37 37 37 37 37 36 36 36 36 37 36 36 37 37 36 36 36 36 35 35 35 35 35 34 33 32 32 31
30 31 32 32 33 33 33 33 34 34 35 35 36 36 36 36 36 35 34 34 34 34 34 35 36 36 35 35 35 35 34 34 33 33 33 33 33 33 32 32 31 31 30 30
29 30 30 31 32 32 32 33 33 33 33 34 34 33 33 32 32 32 32 32 32 33 33 34 34 33 34 34 34 34 33 33 32 31 31 31 31 30 30 31 30 29 29 28
28 29 30 30 30 31 31 32 32 31 31 31 31 31 30 30 31 31 31 31 31 32 32 32 32 32 32 32 32 32 31 31 30 29 29 29 29 28 28 28 28 28 27 26
29 29 29 30 30 30 30 30 30 29 29 29 29 29 29 29 29 29 30 30 30 30 31 31 31 31 31 31 30 30 30 29 29 28 28 28 28 27 27 27 26 26 26 25
30 30 29 29 29 28 28 28 29 29 29 29 29 29 29 29 29 29 29 28 28 29 29 29 29 29 29 29 29 29 28 28 28 27 27 27 27 26 26 26 25 25 24 23
30 29 29 29 28 28 28 28 29 29 29 29 29 29 29 28 28 28 28 27 27 27 27 28 28 27 27 27 27 27 27 27 26 25 25 25 25 24 24 24 23 23 23 23
29 29 29 29 28 28 28 27 27 27 27 27 27 27 27 27 26 26 25 25 25 25 26 26 25 26 26 25 25 25 25 24 24 24 23 23 23 23 23 22 21 21 21 21
29 29 29 28 28 27 26 25 25 25 25 24 24 25 25 25 24 23 23 23 23 23 23 23 24 24 24 23 23 23 23 23 22 22 22 22 22 22 21 21 20 20 20 20
28 28 28 27 27 26 26 25 25 25 25 24 24 24 24 23 23 22 22 21 21 21 22 22 22 22 22 22 22 22 21 21 21 21 21 21 21 20 19 19 19 19 19 18

GEFSNGP_500_meanwind_198.txt.gz
Wind_Speed
36 36 36 36 35 35 36 35 35 33 33 31 33 34 35 36 36 36 36 37 38 39 39 40 41 41 42 42 43 44 44 45 45 46 46 46 47 49 50 51 51 52 52 51
37 37 38 38 38 37 37 37 38 37 36 35 36 37 37 38 38 39 39 40 41 41 42 43 43 44 44 44 45 46 46 46 47 47 47 48 48 49 50 51 52 52 52 52
39 39 40 41 39 38 39 39 39 39 37 38 39 39 39 40 40 40 41 42 43 43 44 45 46 46 46 46 47 47 48 48 48 49 49 50 50 50 51 51 51 51 51 51
41 41 42 40 39 39 40 39 40 41 40 41 41 41 41 42 43 43 43 43 44 45 45 46 47 47 48 48 49 49 49 49 50 50 51 51 51 51 51 51 51 51 51 51
40 42 42 40 40 39 40 40 40 41 41 42 42 43 42 43 43 44 44 44 44 45 46 46 47 47 48 49 49 49 49 50 50 51 51 51 51 51 51 52 51 51 51 52
40 41 41 40 40 40 41 41 40 41 41 42 42 43 42 43 44 44 44 44 44 45 45 46 47 47 48 48 49 49 49 49 50 50 51 51 51 51 51 51 51 51 51 51
40 41 41 40 40 40 41 40 40 41 41 42 42 43 43 43 43 44 44 45 45 46 46 47 47 48 48 48 48 48 48 48 49 50 50 50 50 50 50 50 50 50 50 49
39 40 40 40 40 40 40 40 40 40 41 41 42 42 43 43 43 44 45 46 46 46 47 47 47 48 47 47 47 47 47 47 47 48 48 48 49 48 49 48 48 48 48 48
39 39 39 39 40 41 41 41 40 41 41 42 42 43 43 43 44 45 45 46 46 46 46 46 47 47 47 47 47 46 46 45 45 46 46 46 46 46 46 46 46 46 46 46
39 38 39 39 40 41 41 41 41 41 42 42 42 42 43 43 43 44 44 45 46 46 46 46 46 46 46 46 46 46 45 45 44 44 44 44 44 44 44 44 45 45 45 45
40 39 39 39 39 39 40 40 41 41 41 41 42 42 42 42 43 44 45 45 46 46 46 46 46 45 45 45 45 44 44 43 43 43 43 43 43 43 44 44 44 44 44 44
39 39 39 39 39 39 39 40 40 40 41 41 41 42 42 43 44 45 45 45 45 45 45 45 45 44 44 44 44 43 42 41 41 42 42 42 42 42 42 43 43 43 43 43
40 39 39 38 38 38 39 39 39 39 39 40 40 41 42 44 45 45 44 44 43 43 43 43 43 42 42 43 43 42 41 41 41 41 41 41 41 41 40 41 41 41 42 42
38 38 38 38 38 37 37 38 38 39 39 40 41 42 42 43 43 43 43 43 42 42 41 41 41 41 41 41 41 40 40 40 40 40 39 39 39 40 40 40 40 39 39 40
36 37 37 37 37 37 37 38 38 39 39 40 40 40 41 41 41 40 40 41 41 41 41 41 41 40 40 40 39 39 39 39 39 39 39 39 39 39 39 39 38 38 37 37
34 35 36 37 37 37 37 38 38 39 39 39 39 39 39 39 39 39 39 40 40 40 40 40 40 39 39 39 38 38 38 38 38 38 38 38 38 38 37 37 36 35 35 35
33 34 35 36 37 37 38 38 39 39 38 38 38 38 38 38 38 38 39 39 39 39 39 39 38 38 38 38 38 37 37 37 36 36 36 36 36 36 36 36 35 34 34 34
30 31 32 33 34 34 35 35 36 36 36 36 36 37 37 38 38 37 37 38 38 38 38 37 37 37 36 36 37 36 36 36 36 36 36 36 36 35 35 35 34 34 33 33
28 28 29 30 31 32 33 33 33 33 34 34 35 35 35 35 35 35 36 36 36 36 36 35 35 34 34 34 35 35 35 36 36 35 35 35 34 34 33 33 32 32 32 32
26 27 28 28 30 31 32 32 32 32 33 33 33 33 33 33 34 35 35 34 34 34 33 33 33 32 32 32 33 33 33 34 34 33 33 33 32 31 31 30 30 30 30 30
26 27 27 28 29 30 31 31 31 31 31 31 31 31 31 32 32 32 32 31 31 32 31 31 31 31 31 31 31 31 31 31 31 30 30 30 30 29 29 29 29 29 28 28
26 26 27 28 29 28 29 29 29 29 30 30 31 31 30 30 31 31 30 30 30 29 30 30 30 30 29 29 29 29 29 29 28 28 28 27 27 27 27 27 27 26 26 26
27 27 28 28 28 27 27 27 28 28 29 29 29 29 29 29 30 29 28 28 28 28 28 27 27 27 27 27 27 27 27 27 27 26 26 26 25 25 25 25 25 24 24 24
26 27 27 27 27 27 27 27 27 27 27 27 28 28 28 27 27 27 26 25 25 25 25 25 24 25 25 25 26 26 25 25 25 25 25 24 24 23 23 23 23 23 22 21
25 25 26 26 26 26 26 26 26 26 27 27 27 27 26 25 25 24 24 23 23 23 22 23 23 23 24 24 24 24 23 23 23 23 22 22 22 21 21 21 21 21 20 20
27 26 26 26 26 25 25 25 25 25 26 25 25 24 24 24 24 23 23 22 22 21 21 21 21 22 22 23 23 23 22 22 21 21 20 20 20 20 20 20 20 20 20 20
26 26 26 26 26 25 25 25 24 24 23 23 22 22 23 23 22 22 22 21 21 21 20 20 20 20 20 20 20 19 19 18 18 18 18 18 18 18 18 19 19 19 19 19

GEFSNGP_500_meanwind_204.txt.gz
Wind_Speed
40 40 40 40 39 39 40 40 40 38 37 35 36 37 36 36 36 35 36 36 37 37 38 39 39 40 41 42 43 44 43 44 44 45 45 46 46 46 47 47 48 48 49 50
41 40 40 41 41 41 41 41 41 40 39 37 38 39 39 39 39 38 38 39 40 40 41 41 42 42 43 44 45 46 46 46 46 47 47 48 48 48 49 49 49 50 51 52
41 41 42 44 42 42 42 42 41 42 40 39 40 41 41 41 41 41 41 41 42 43 43 44 44 44 45 46 46 46 47 47 47 48 48 49 50 50 51 51 52 52 53 54
41 41 44 42 42 42 42 42 42 42 41 41 41 42 42 42 42 43 43 43 44 45 45 45 46 46 46 47 46 46 47 47 48 49 50 51 52 52 53 53 54 54 55 55
41 41 42 41 41 41 41 42 42 42 42 42 43 43 43 43 43 43 44 44 45 46 46 47 47 47 47 48 48 48 48 49 49 50 51 52 53 53 54 54 55 55 55 55
41 42 41 39 40 41 42 42 41 42 42 42 43 43 43 44 44 44 45 45 46 46 46 47 47 48 48 49 49 50 50 51 51 51 52 52 53 54 54 54 54 54 54 54
39 41 40 39 39 40 42 41 41 41 41 41 42 43 44 45 45 45 45 45 45 46 47 47 48 49 49 49 50 50 51 51 51 52 52 52 52 52 52 52 52 52 52 52
36 38 38 37 38 39 40 40 40 41 41 41 42 43 43 44 44 45 45 45 45 46 46 47 48 49 49 49 50 51 51 51 51 51 51 51 51 51 51 50 50 50 50 49
35 36 36 37 38 38 39 39 40 41 41 41 42 42 42 43 44 44 44 45 46 46 46 47 48 49 49 50 50 51 51 52 52 52 51 50 50 49 48 48 48 48 48 47
37 36 35 35 36 38 39 39 39 39 40 41 41 41 42 42 43 43 44 45 46 46 47 47 48 49 50 51 52 52 52 51 51 51 50 49 48 47 47 46 46 46 46 46
38 37 37 37 37 38 38 39 39 40 40 41 41 41 41 42 42 43 44 45 46 46 47 47 48 49 50 51 52 51 50 50 49 49 48 47 46 46 46 46 45 45 45 45
38 38 38 38 38 39 39 39 39 40 40 41 41 41 41 41 42 42 43 44 45 45 46 47 48 48 49 50 50 50 49 48 47 46 46 45 45 45 44 44 44 44 44 44
37 38 39 39 39 39 39 38 38 39 39 40 40 41 41 41 42 43 43 44 45 45 46 46 47 47 47 47 47 47 47 46 44 44 43 43 44 44 44 43 43 43 44 44
36 37 38 38 38 39 39 38 38 38 38 38 39 39 40 41 41 42 42 42 43 43 44 44 45 45 45 45 45 44 44 43 43 42 42 43 43 43 43 42 42 42 42 42
35 35 36 36 36 37 37 38 38 38 38 38 38 39 40 40 40 40 40 41 41 42 42 43 44 43 43 43 42 42 42 42 42 42 42 42 42 42 41 42 42 42 41 40
33 33 34 34 35 35 36 37 37 37 38 38 39 39 40 40 40 40 40 40 40 40 40 40 40 40 41 41 41 41 40 41 41 41 41 41 40 40 40 40 40 40 39 39
30 31 32 33 34 35 36 36 37 37 37 38 38 39 39 40 40 40 40 40 40 39 38 39 39 39 39 39 39 39 40 40 40 40 39 39 39 39 38 39 38 38 37 38
29 30 31 32 32 33 34 35 36 36 37 38 38 38 39 39 39 39 39 39 39 39 39 39 39 39 38 38 38 38 38 38 38 38 38 37 37 37 37 37 37 36 36 36
27 29 30 31 32 33 33 34 35 36 36 37 37 38 38 38 39 39 38 38 38 38 38 39 38 38 37 37 37 37 36 36 36 36 35 35 35 35 35 35 35 35 35 35
26 27 28 29 30 31 32 32 33 34 35 35 36 36 36 36 36 36 36 36 36 37 36 36 35 35 35 35 35 35 34 34 33 33 32 33 33 33 34 34 34 34 33 33
26 26 26 28 29 30 30 31 32 32 33 33 34 34 33 33 34 34 34 34 34 35 34 34 33 33 33 33 32 32 32 31 31 31 32 32 32 32 32 32 32 32 31 31
27 28 28 28 29 30 30 30 31 31 31 32 32 32 32 32 32 32 33 33 32 33 32 32 32 31 31 31 30 30 29 29 30 30 30 30 30 30 29 29 29 29 28 28
29 29 30 30 30 30 29 30 30 30 30 30 30 31 31 31 31 31 30 31 31 31 30 30 30 30 29 29 29 28 27 27 27 27 27 27 27 26 26 26 26 25 25 24
30 30 30 30 30 30 29 29 29 29 29 29 29 29 29 29 29 29 29 28 29 28 28 28 28 28 27 27 26 25 25 25 25 24 24 24 24 23 23 23 23 22 22 22
30 30 29 29 28 28 28 28 28 28 28 28 28 28 28 28 27 27 27 27 27 26 26 26 26 25 24 24 23 23 23 24 23 23 23 22 22 21 21 21 20 20 20 20
28 28 27 27 26 26 26 27 27 27 27 26 26 26 26 26 26 25 25 25 25 24 24 23 23 23 22 22 22 22 23 23 22 22 22 21 21 20 20 20 20 20 19 19
26 26 26 25 25 25 25 25 25 25 25 25 25 26 26 25 25 25 24 24 23 23 23 22 22 22 21 21 21 21 21 21 21 21 20 20 20 19 19 19 18 18 18 18

GEFSNGP_500_meanwind_210.txt.gz
Wind_Speed
43 42 42 41 41 42 43 43 42 40 39 36 35 35 36 35 35 34 35 35 36 36 37 37 38 39 39 40 40 41 42 42 42 43 43 43 44 44 45 45 46 47 48 49
42 42 42 42 41 42 43 43 43 41 40 39 38 37 38 38 37 37 37 38 38 39 39 39 40 41 41 42 42 43 43 44 44 45 46 46 46 46 46 46 47 48 49 50
42 41 42 43 41 41 43 43 42 42 40 40 40 40 39 39 39 39 39 40 40 40 40 41 42 42 43 43 44 44 45 45 46 47 48 48 48 48 47 48 48 49 50 50
39 40 42 42 40 41 41 41 42 42 41 42 42 42 41 41 40 40 40 41 40 41 42 43 43 44 45 45 45 46 46 46 47 47 48 49 49 48 48 49 50 50 51 51
34 37 40 39 38 39 39 40 41 41 41 41 41 41 41 41 41 41 41 41 41 42 43 43 44 45 46 46 46 46 46 46 47 47 48 48 49 50 50 51 51 52 53 54
33 34 36 36 36 37 38 38 38 39 40 40 40 41 41 41 41 41 41 42 42 43 43 44 45 46 46 46 46 47 47 47 47 48 48 49 49 50 50 51 53 54 54 55
33 33 34 33 33 34 36 37 36 36 37 38 39 40 40 41 41 41 40 41 41 42 43 44 45 46 46 46 47 47 48 47 48 48 49 49 50 50 51 52 53 53 54 54
31 32 31 31 31 32 33 32 34 35 35 36 37 38 38 39 39 39 39 39 40 41 42 43 45 46 46 46 47 48 48 48 48 49 49 49 49 50 51 52 52 52 52 52
29 29 30 30 31 31 31 31 31 33 33 33 34 36 37 37 37 37 38 39 40 41 41 43 44 45 45 46 46 47 48 48 48 48 48 49 50 50 51 51 51 52 51 51
26 26 27 28 29 29 30 31 32 32 32 32 32 33 34 35 36 37 37 38 39 40 40 41 42 43 44 45 45 46 47 47 48 48 48 49 49 50 50 50 50 51 50 50
25 25 25 26 27 28 29 30 31 31 32 32 31 32 33 34 35 36 37 38 38 38 39 40 41 42 43 44 45 45 46 47 48 48 49 49 49 49 49 49 49 49 49 48
23 25 26 26 27 27 27 28 29 30 31 31 32 32 32 34 35 35 36 36 37 38 39 40 40 41 42 44 44 45 46 47 48 48 48 48 48 48 48 48 48 48 47 47
23 24 25 25 26 27 27 28 29 30 31 31 32 32 33 34 35 36 37 37 38 39 39 40 40 41 42 43 44 44 46 46 47 47 47 47 47 47 47 47 47 46 45 44
24 24 25 26 27 28 29 29 30 31 32 32 33 33 33 34 35 36 38 38 39 40 40 40 40 41 42 42 43 44 44 45 45 45 45 46 46 46 45 45 44 43 42 42
25 25 25 26 27 28 29 29 30 31 31 32 32 33 34 35 36 37 37 38 39 39 40 40 40 41 41 42 43 43 43 43 44 44 44 43 43 43 42 42 41 41 41 41
24 24 25 26 27 28 29 30 30 31 31 32 32 33 34 35 36 36 37 37 38 38 39 40 40 41 41 42 42 42 42 42 42 42 41 41 41 40 40 39 40 40 40 40
23 23 24 25 26 27 28 29 30 31 31 32 32 33 33 34 35 35 36 36 37 38 39 39 40 41 41 41 41 40 40 40 40 40 39 39 38 38 38 38 38 38 37 37
22 22 23 24 25 26 27 28 30 31 31 32 32 32 32 33 34 35 35 36 37 37 38 39 39 39 39 39 39 38 39 38 38 38 37 36 35 35 36 36 36 35 35 35
23 23 24 24 24 25 27 28 29 30 31 31 31 31 32 33 33 33 34 35 35 35 36 36 36 36 37 37 37 37 37 36 35 34 34 33 33 33 33 33 32 32 32 32
23 24 25 25 26 26 26 27 27 28 29 30 30 31 31 32 32 32 32 33 33 34 34 34 34 35 35 36 36 35 34 33 32 31 31 31 30 30 30 30 30 30 30 30
25 25 26 26 26 27 27 27 28 29 29 29 30 31 31 31 31 31 32 32 32 33 33 33 34 34 34 33 33 33 32 31 30 30 30 30 30 30 29 29 29 29 29 28
26 26 26 26 27 27 27 28 28 29 29 29 30 30 30 30 30 30 31 31 31 32 32 32 33 33 33 32 31 30 30 29 29 29 29 29 29 29 28 28 28 27 27 27
26 26 27 27 28 28 28 28 29 29 29 29 30 30 30 30 30 30 30 31 31 31 31 31 31 31 30 30 30 29 28 28 28 28 28 28 28 28 27 27 27 26 26 26
26 27 27 28 28 28 28 29 29 29 29 29 30 30 30 30 30 30 30 31 31 30 29 29 29 29 28 28 28 27 27 27 27 27 27 27 27 26 26 25 25 25 24 23
27 27 27 27 27 27 27 27 27 28 28 28 28 29 29 29 29 29 29 28 28 27 27 27 27 27 27 26 26 26 27 27 27 26 26 26 25 24 24 24 23 23 22 22
24 25 25 25 25 25 25 25 26 26 26 27 27 27 27 27 27 27 27 26 26 26 26 26 25 25 25 25 25 25 25 25 25 24 24 23 22 22 22 22 22 21 20 20
22 23 24 24 24 25 25 25 25 25 26 26 26 26 25 25 25 25 25 25 25 24 24 24 24 24 24 24 24 23 23 23 22 22 22 21 21 21 20 20 20 20 19 19

GEFSNGP_500_meanwind_216.txt.gz
Wind_Speed
42 41 42 42 41 41 42 42 42 41 40 38 37 37 37 37 37 36 36 36 37 36 37 37 38 38 38 39 40 42 42 42 42 42 43 44 44 45 45 45 46 46 47 47
40 41 42 43 43 42 42 41 42 41 41 41 39 39 38 38 38 38 38 38 38 38 39 39 39 39 39 40 40 41 42 43 43 43 44 45 46 47 47 47 48 48 48 49
38 38 40 42 41 42 42 41 41 42 41 41 41 39 38 38 38 39 40 40 40 40 41 41 41 41 41 42 42 42 43 43 44 45 45 46 47 48 48 48 48 49 49 50
37 36 39 39 38 39 40 41 41 42 42 42 42 41 41 41 40 40 41 41 41 42 42 42 42 42 43 43 43 43 44 44 45 45 46 46 47 48 48 49 49 49 49 50
34 35 36 36 37 38 39 39 39 40 42 43 43 42 42 41 42 42 42 42 41 42 42 43 43 43 44 44 45 45 45 45 45 46 46 47 48 49 50 50 50 50 50 50
31 31 30 31 31 33 36 37 35 36 38 39 41 42 41 41 41 42 42 42 42 42 42 43 43 43 43 44 45 45 46 46 47 47 48 48 49 50 50 50 50 50 50 50
29 30 29 29 28 30 33 34 34 34 34 36 38 39 39 40 40 40 41 41 41 42 42 43 43 44 44 44 44 45 46 47 48 48 48 49 49 49 49 49 49 49 50 50
27 29 29 29 29 29 30 31 32 32 32 33 34 35 36 37 38 38 39 39 40 41 41 41 42 43 44 44 45 45 46 47 47 48 48 48 48 48 48 49 49 50 50 50
25 27 28 28 28 29 29 30 30 30 31 32 32 34 35 36 37 37 37 37 38 39 39 40 41 42 44 44 44 44 45 45 46 46 46 46 46 47 47 48 49 50 50 51
24 25 25 26 26 27 28 29 30 30 30 31 31 32 33 34 34 35 35 35 36 37 39 40 41 42 43 44 44 43 43 44 44 45 45 45 45 46 47 47 48 48 50 51
24 24 24 24 24 25 27 28 28 29 30 30 30 30 30 30 31 32 33 34 35 36 38 39 40 40 41 41 42 43 43 43 44 44 44 44 45 45 46 46 47 48 49 50
22 22 23 23 23 23 24 26 26 27 28 29 29 30 30 30 31 31 32 33 35 36 37 38 38 39 40 41 42 42 42 43 43 43 43 44 44 45 45 46 47 48 48 49
19 20 21 21 22 22 22 23 24 25 26 27 29 30 31 31 31 32 33 34 35 36 37 38 38 39 40 41 41 42 41 42 42 42 43 43 44 45 45 46 46 47 48 48
19 19 19 20 21 21 21 22 23 24 25 26 27 29 30 31 32 32 33 34 34 35 36 37 37 38 39 39 40 41 41 42 42 43 43 44 44 44 45 45 45 45 46 46
20 19 20 21 22 22 22 23 24 24 25 26 26 27 29 29 31 32 32 33 34 35 35 36 37 37 38 39 40 40 41 41 42 43 43 44 44 44 44 44 45 44 44 43
21 20 20 20 21 22 23 23 24 25 26 27 27 28 29 30 31 32 32 33 34 34 35 36 36 37 37 38 38 39 40 41 42 42 42 42 43 43 43 43 43 42 41 40
21 21 20 21 21 22 22 23 24 25 26 26 28 29 29 30 31 32 33 34 34 35 35 36 36 36 37 37 38 38 39 40 41 41 41 41 41 42 42 41 40 39 38 38
20 21 21 21 22 22 22 23 24 25 26 28 29 29 30 30 32 32 33 34 34 35 35 36 36 37 37 37 38 38 39 39 40 40 40 41 40 40 39 39 37 36 36 36
21 22 22 22 23 23 23 24 25 25 26 27 29 30 30 31 32 33 33 34 34 35 35 36 36 36 37 37 38 38 39 39 39 39 39 39 39 38 37 37 36 35 34 34
22 23 23 24 24 25 25 25 26 27 27 28 29 30 31 32 32 33 33 34 34 34 35 35 36 36 37 37 38 38 38 38 38 38 38 38 37 36 35 34 34 33 33 32
25 25 26 26 27 27 27 27 28 28 29 29 30 30 31 31 31 32 32 32 33 34 34 34 35 35 36 36 37 37 37 37 37 37 36 36 35 34 33 33 32 31 31 31
25 26 27 28 28 28 28 28 28 28 29 29 29 29 29 29 29 30 31 31 32 32 33 33 33 33 33 34 34 34 34 34 34 34 34 33 33 32 31 31 31 30 30 30
25 26 26 27 27 28 28 28 28 29 29 29 29 29 28 28 29 29 29 30 30 30 30 31 31 31 31 31 31 31 31 31 31 31 31 31 31 31 30 30 29 29 29 29
25 25 26 26 27 27 27 27 27 28 28 28 28 28 28 28 28 29 29 29 29 29 29 29 29 29 29 29 29 29 29 29 29 29 29 28 28 28 28 28 28 28 27 27
23 23 24 25 25 26 27 27 27 27 27 27 27 27 27 27 28 28 29 29 28 28 28 28 28 27 27 27 27 27 27 27 27 27 27 26 26 26 26 26 26 25 25 24
21 22 22 23 24 25 26 26 27 27 27 27 27 28 28 28 28 28 28 28 27 27 26 26 26 26 26 25 25 25 26 26 25 25 24 24 24 24 23 23 23 23 22 22
22 22 23 24 25 25 26 26 26 27 27 27 27 27 27 27 27 27 26 26 26 25 25 24 24 24 24 24 24 24 23 23 22 22 22 21 22 22 22 22 22 22 21 21

GEFSNGP_500_meanwind_222.txt.gz
Wind_Speed
36 36 35 37 37 38 40 40 40 38 37 36 34 33 32 32 33 34 34 34 34 34 34 35 35 35 35 36 36 36 36 36 37 38 39 40 40 40 41 41 41 41 42 42
35 35 35 35 36 37 39 40 40 39 38 37 37 35 33 33 34 34 35 35 36 36 36 36 36 36 36 36 37 37 37 38 38 38 39 40 41 42 42 43 43 44 44 44
32 34 35 35 34 34 35 36 38 38 37 38 38 37 36 36 35 35 36 36 37 38 38 37 38 37 37 37 38 38 38 39 39 39 40 41 42 42 43 44 44 44 45 46
30 32 35 34 33 33 34 34 35 36 37 37 38 38 39 38 38 37 37 37 38 39 40 39 39 39 39 39 39 40 40 40 41 41 42 43 43 43 43 44 45 47 47 48
28 29 31 32 32 33 35 34 34 34 35 36 37 38 38 38 38 38 38 38 38 39 39 40 40 40 40 40 41 41 42 41 42 42 43 44 45 45 44 45 46 47 47 48
26 27 29 29 29 30 32 32 32 32 32 33 35 36 36 37 37 37 37 38 38 38 39 40 40 41 41 41 41 42 43 43 43 43 44 46 46 46 47 47 47 48 48 49
24 26 27 28 29 29 29 29 30 30 31 31 33 33 34 35 36 36 37 36 37 38 38 39 40 41 41 42 41 42 43 43 44 44 45 45 46 46 47 48 48 48 48 49
22 25 24 24 26 27 27 27 28 28 29 30 30 31 32 33 34 35 36 36 36 37 38 38 39 40 41 42 42 42 42 43 44 45 45 46 46 46 47 47 48 48 48 48
21 23 22 22 23 25 26 26 25 26 27 28 29 29 30 31 32 33 35 36 36 37 38 38 39 40 41 41 41 41 42 43 43 44 44 44 45 45 46 46 46 46 46 46
19 20 21 21 22 23 25 25 24 24 25 27 27 27 27 28 30 31 31 33 35 37 38 39 39 40 40 40 41 41 41 42 42 42 42 43 43 44 45 45 45 45 45 46
18 19 20 21 21 21 21 22 23 23 23 24 26 27 27 27 28 29 31 32 33 35 36 38 39 39 40 40 40 41 41 41 41 41 42 42 42 42 43 43 44 44 45 45
16 16 18 20 21 21 21 21 22 23 23 24 24 25 26 27 27 28 29 31 32 33 34 35 36 37 38 39 39 39 39 40 40 40 41 41 41 42 42 43 44 44 44 44
16 16 17 18 19 20 20 20 21 22 23 24 24 24 25 26 27 28 29 30 31 31 32 33 34 35 36 37 38 38 38 38 38 39 40 40 41 41 42 42 43 43 43 44
16 17 17 18 18 18 19 20 20 20 22 23 23 24 25 26 27 28 28 28 29 30 31 31 32 33 34 35 36 36 37 37 38 38 39 39 40 40 40 40 41 42 43 43
15 16 17 17 18 18 18 19 19 19 20 21 22 23 24 25 27 28 28 29 30 30 30 31 31 32 34 35 35 36 36 37 37 37 38 38 39 40 40 40 41 42 42 43
15 16 16 17 17 18 18 18 19 19 20 20 21 22 23 24 25 26 28 29 29 30 30 31 31 32 33 34 35 35 35 36 36 37 38 38 39 40 40 41 42 42 43 43
16 17 17 17 18 18 18 19 19 20 20 21 21 22 22 23 24 26 27 28 28 28 29 30 31 32 32 33 34 34 35 35 36 37 38 38 39 40 40 41 41 42 43 43
16 16 17 17 18 19 19 20 20 20 21 22 22 22 23 23 24 25 26 27 28 28 29 30 30 30 31 32 33 33 34 35 36 37 37 38 39 40 41 42 42 42 43 42
16 16 17 17 18 19 20 21 21 22 22 22 23 23 24 24 25 26 27 27 28 29 29 30 30 30 30 31 31 31 32 33 35 36 37 38 39 40 40 41 41 40 40 40
17 17 18 18 18 19 20 20 21 22 23 23 24 25 25 26 26 27 27 28 28 29 30 30 31 31 31 31 32 32 32 33 34 35 36 37 37 38 38 38 38 38 38 38
18 18 19 19 20 20 21 22 23 23 23 24 25 25 26 27 28 28 28 28 29 30 31 31 31 32 32 32 32 33 33 33 34 34 35 35 35 35 35 35 35 35 36 36
18 19 19 20 21 21 22 23 23 23 24 24 25 25 26 27 28 28 29 29 30 30 31 32 32 32 32 33 33 33 33 34 34 34 34 34 34 34 34 34 34 34 34 35
18 19 19 20 21 22 22 23 23 24 24 25 25 26 26 26 27 27 28 29 29 30 30 31 31 32 32 33 34 34 34 34 34 33 33 33 33 33 33 33 33 33 33 33
18 19 20 20 21 21 22 23 24 25 25 26 26 27 27 27 27 27 28 28 28 29 29 30 30 31 32 32 33 33 33 32 32 31 31 31 31 31 31 32 32 31 31 30
19 19 20 21 22 22 23 24 24 25 26 26 27 27 27 27 28 28 27 28 28 28 28 29 29 30 30 30 30 30 29 29 29 29 29 29 28 29 29 29 28 27 26 25
18 20 21 22 22 23 24 24 25 26 26 27 27 27 27 28 27 27 27 27 27 27 28 28 28 28 28 27 27 26 26 26 26 26 25 25 25 25 25 24 24 23 23 22
19 20 20 21 22 23 24 25 26 26 26 27 27 27 26 26 26 26 26 27 27 27 27 27 26 26 25 25 24 24 23 23 23 23 23 23 23 22 22 22 22 22 21 21

GEFSNGP_500_meanwind_228.txt.gz
Wind_Speed
32 33 35 35 35 36 37 38 39 38 38 37 38 38 38 37 37 37 38 38 39 39 39 39 39 39 39 40 41 41 40 40 39 39 39 39 39 39 40 41 42 43 43 44
31 31 33 35 35 35 36 36 37 37 36 36 37 38 38 37 36 37 38 38 39 39 40 40 40 40 40 40 41 42 41 41 40 40 39 40 40 40 41 42 42 43 43 44
30 30 32 33 33 34 35 36 36 35 33 34 35 36 35 36 36 36 38 38 39 40 40 41 41 41 40 41 41 42 42 41 41 42 42 41 41 41 42 43 44 44 45 44
27 29 31 31 31 32 33 33 34 33 33 34 34 34 34 34 35 36 38 39 40 40 40 41 42 42 42 42 42 42 42 42 42 43 43 44 43 44 44 44 44 45 46 46
24 26 29 28 28 30 31 31 33 33 32 33 33 32 32 33 34 35 37 38 39 40 40 41 42 42 42 42 42 42 42 43 44 44 44 45 45 44 45 45 45 45 45 46
21 23 25 25 26 28 29 30 30 31 31 31 32 31 30 32 33 34 36 37 38 39 40 40 41 42 42 42 42 43 42 43 43 43 44 44 44 44 45 46 46 45 45 46
19 20 21 21 21 24 27 27 28 29 29 30 31 31 30 30 31 33 34 36 38 39 40 40 41 42 42 42 42 42 43 44 44 44 44 44 44 44 45 45 45 45 46 46
19 19 18 20 20 21 23 24 26 27 28 29 29 29 30 30 31 32 33 34 35 37 38 40 41 41 41 41 41 42 42 43 43 44 44 44 44 44 45 45 45 45 45 46
18 18 18 19 20 20 21 22 23 25 26 27 27 28 29 30 30 30 31 32 33 34 36 37 38 39 41 41 41 41 41 42 42 42 43 42 43 43 44 44 45 45 45 45
17 17 17 19 20 20 20 21 22 22 23 24 24 25 26 27 27 28 28 29 30 31 32 34 35 37 39 40 41 41 41 40 40 40 41 41 41 41 42 42 43 44 43 44
17 17 17 18 19 20 21 22 23 23 23 24 24 25 26 26 27 27 27 27 28 29 29 31 33 35 36 38 39 39 39 39 39 39 39 39 39 40 40 41 41 42 43 44
15 16 17 18 19 20 21 22 22 23 24 24 25 25 25 25 26 26 26 27 27 27 28 29 30 32 34 35 36 37 37 37 37 38 38 39 39 39 40 40 40 40 40 41
14 15 16 17 18 19 20 21 21 23 23 23 24 24 24 24 24 25 25 26 27 27 27 28 30 31 32 33 34 35 36 36 36 37 38 38 39 39 39 39 39 40 41 41
14 15 15 17 17 18 19 20 21 21 22 23 23 23 24 24 24 25 25 25 26 27 28 29 30 31 32 32 33 33 35 36 37 37 38 38 38 39 39 39 40 40 41 42
14 15 15 16 17 17 18 19 20 20 21 21 22 23 23 23 24 24 25 26 26 26 26 27 28 29 30 31 32 33 34 35 36 37 37 38 38 38 39 40 40 40 41 42
14 15 16 17 18 18 18 19 19 20 20 20 21 21 22 23 23 23 23 24 25 26 27 27 28 29 29 30 31 32 33 34 35 36 37 38 38 38 39 40 41 41 41 42
15 15 15 16 17 18 19 19 20 20 21 21 21 20 21 21 21 22 22 23 24 25 26 27 28 29 29 30 30 31 32 32 33 34 35 36 37 38 39 40 40 40 41 41
15 15 15 15 16 18 18 20 21 21 21 22 22 22 22 22 22 22 22 23 24 24 25 26 27 28 29 29 30 30 31 32 33 34 34 35 36 37 38 39 40 40 41 41
16 16 17 17 17 18 19 20 21 21 22 23 23 23 24 24 24 24 24 24 25 25 25 26 27 28 28 29 30 30 31 32 33 34 34 35 36 37 38 38 39 40 41 41
18 18 18 18 18 18 19 20 21 21 22 24 24 25 25 25 26 26 25 25 26 26 27 28 28 29 29 29 30 31 31 32 33 33 34 34 35 36 37 37 38 38 39 40
19 19 19 19 19 19 19 20 20 21 22 23 24 25 25 26 26 26 26 26 26 27 27 28 28 29 30 30 31 31 32 32 32 33 33 34 35 35 35 36 36 37 37 37
20 20 20 21 21 21 21 21 22 22 23 23 24 25 25 26 27 27 27 27 27 28 28 28 29 29 30 31 31 31 31 32 32 33 33 33 33 34 34 35 35 36 36 35
18 19 19 20 20 20 20 21 21 22 22 23 23 24 25 25 26 27 27 28 28 28 29 29 29 30 30 31 31 31 31 32 32 32 33 33 33 33 33 33 34 34 34 34
16 16 16 17 17 18 19 20 20 21 22 23 24 24 25 26 26 27 27 28 28 28 29 29 30 30 30 30 30 31 31 32 32 32 32 33 32 32 32 32 32 32 32 32
16 17 17 17 18 19 19 20 21 22 22 23 24 25 25 26 26 26 27 27 27 28 28 29 29 29 29 29 30 30 31 32 32 32 32 32 31 31 31 31 31 31 31 31
16 16 17 18 19 19 20 21 21 22 22 23 23 25 25 26 26 27 27 27 28 28 28 28 28 29 29 29 29 30 30 30 30 30 30 29 29 29 29 29 29 29 29 29
15 16 17 18 19 20 20 21 22 22 23 23 24 24 25 26 26 27 27 28 28 28 28 28 28 28 28 29 29 29 29 28 28 28 27 27 27 27 27 27 26 26 26 26

GEFSNGP_500_meanwind_234.txt.gz
Wind_Speed
25 27 29 31 31 31 33 35 36 36 36 37 37 38 38 38 37 37 37 38 39 40 41 41 41 40 41 40 39 39 40 40 40 40 40 41 41 42 42 42 42 42 43 42
24 25 27 30 30 29 30 31 33 33 33 35 36 36 37 37 37 36 37 37 38 39 40 40 40 41 41 40 40 40 41 41 41 41 41 42 42 43 43 43 43 43 43 43
22 24 26 28 29 31 30 29 30 31 30 31 33 34 35 35 35 35 36 37 37 38 38 39 40 40 40 40 40 41 41 41 42 42 42 43 43 43 44 44 44 45 44 44
19 22 25 25 26 28 30 30 30 28 27 28 29 31 32 33 33 34 34 36 37 37 38 39 39 40 40 40 40 41 42 42 42 43 43 44 44 45 45 44 45 45 46 46
18 20 21 23 23 25 27 28 28 28 28 28 29 29 29 30 30 32 33 34 35 37 38 38 38 39 40 40 40 41 42 42 42 43 43 44 45 45 45 45 45 45 45 45
17 18 18 19 21 22 24 26 27 27 28 29 28 28 28 27 27 29 31 33 34 35 37 37 38 38 39 39 40 40 41 42 43 43 43 44 45 45 44 45 45 44 44 44
15 16 16 17 19 20 21 23 24 26 27 28 29 28 27 27 26 27 28 31 33 34 35 37 38 38 39 39 39 39 40 41 42 43 43 43 43 43 43 43 44 44 44 44
14 14 14 14 16 19 19 20 22 24 25 26 27 28 27 27 27 27 27 29 31 33 34 35 36 37 38 38 39 39 39 40 41 41 42 42 42 42 42 42 42 42 42 43
12 13 12 13 14 16 17 18 19 20 23 24 25 26 27 27 27 27 27 28 30 31 32 34 35 36 37 38 38 39 39 40 40 40 40 41 41 40 41 41 41 41 41 41
12 12 12 11 12 14 15 17 18 19 21 22 23 24 25 26 26 26 26 27 28 29 30 32 33 34 35 36 37 38 39 39 39 39 39 39 40 40 39 40 40 40 40 40
12 12 12 13 13 13 14 16 17 19 20 21 22 23 23 24 24 24 25 27 27 27 28 30 31 33 34 35 35 37 37 38 38 38 38 38 38 39 39 39 39 40 40 40
13 13 13 13 14 14 14 14 16 17 19 21 22 22 22 23 23 23 23 24 25 26 26 27 29 31 32 32 33 34 35 36 37 37 37 38 38 38 38 38 38 39 39 39
13 14 14 14 14 15 15 14 15 17 18 20 21 22 22 22 22 21 22 23 24 25 26 27 28 29 30 30 31 32 33 34 35 36 36 36 37 37 37 37 38 38 39 39
14 14 15 15 15 15 15 16 16 16 17 18 20 21 22 22 22 22 22 23 23 24 25 25 26 27 28 28 29 29 30 31 32 33 35 36 37 38 37 38 38 38 38 39
13 14 15 15 15 16 16 16 17 17 18 19 20 21 21 22 22 23 22 23 23 23 24 24 25 26 27 28 28 29 29 30 31 31 33 34 36 37 37 38 38 39 39 39
12 13 14 15 16 16 17 17 17 17 18 20 20 20 21 21 22 22 23 23 23 23 23 23 24 25 26 27 28 29 30 30 31 32 32 33 34 35 36 37 37 37 37 38
11 12 13 14 15 16 17 18 18 19 19 20 20 20 20 21 21 22 23 23 23 23 23 23 23 24 25 27 28 29 30 30 31 32 32 32 33 34 35 36 36 36 37 37
11 12 13 14 14 15 16 17 18 19 19 20 21 21 21 21 21 21 22 23 23 23 24 24 24 25 25 26 27 28 29 30 30 31 32 32 33 34 35 35 36 37 37 38
13 13 14 14 14 15 15 16 18 19 19 20 21 22 22 22 22 22 23 23 24 24 24 25 25 25 26 26 27 28 28 29 31 31 32 33 33 33 34 35 36 37 38 39
14 14 14 14 15 15 16 17 18 18 19 20 21 22 22 23 23 23 24 24 25 25 25 26 26 26 26 27 27 28 29 30 30 31 32 32 33 33 34 35 36 36 37 37
15 15 15 16 16 17 17 18 18 19 19 20 21 22 22 23 23 24 24 25 25 25 26 26 26 27 27 27 27 28 29 30 30 31 31 31 32 33 33 34 34 35 35 35
14 15 16 16 17 18 18 18 19 20 20 20 21 21 22 23 24 24 25 25 25 26 26 26 27 27 27 27 28 28 29 30 30 30 30 30 31 31 32 32 33 33 33 34
14 15 15 16 16 17 17 18 19 19 20 20 21 21 22 23 24 24 25 25 25 25 25 25 26 26 26 27 27 28 28 29 29 29 29 29 29 30 30 31 32 32 32 32
13 13 14 15 15 16 16 17 18 19 20 20 21 22 22 23 24 24 24 24 25 25 26 26 26 26 26 27 27 27 27 28 28 28 28 28 28 29 30 31 32 32 32 32
12 12 13 13 14 15 16 17 17 18 19 20 21 22 23 23 24 24 25 25 26 27 27 27 27 27 27 27 27 27 27 27 28 28 29 29 30 30 30 31 31 31 32 32
12 13 13 13 13 14 15 16 17 18 19 20 20 21 21 22 23 24 25 25 26 27 27 27 27 27 27 27 27 27 27 27 28 29 29 30 30 31 31 31 31 31 31 31
13 14 15 15 16 16 16 17 17 17 18 19 20 20 21 22 22 23 24 25 25 26 26 26 26 27 27 27 27 27 27 28 28 28 29 29 29 30 30 30 30 30 30 29

GEFSNGP_500_meanwind_240.txt.gz
Wind_Speed
19 22 24 26 28 29 30 30 29 29 31 33 35 37 39 39 40 40 40 41 41 42 42 42 41 41 41 41 41 42 42 42 41 41 41 41 41 41 41 41 42 42 42 42
19 20 23 25 26 27 28 29 30 29 29 30 33 35 37 39 40 40 40 40 41 41 41 42 41 41 41 42 42 42 42 42 42 42 42 41 41 41 41 42 42 42 43 43
17 19 21 23 24 26 27 27 29 30 30 30 30 32 34 35 37 38 39 40 40 40 40 40 41 41 42 42 43 43 43 42 43 43 42 42 42 42 42 42 43 43 44 44
16 17 21 21 22 24 26 27 28 29 29 29 30 31 32 32 34 35 37 38 39 39 39 39 39 41 42 42 42 43 43 43 43 43 43 43 42 43 43 44 44 44 45 45
16 18 19 19 21 22 24 26 27 28 29 29 30 30 31 32 33 34 34 35 37 37 38 38 39 40 41 42 42 42 42 42 43 43 43 43 43 43 43 43 43 43 43 44
17 18 19 19 18 21 23 25 25 26 27 28 29 30 31 31 32 33 33 33 34 35 37 38 38 39 40 41 41 41 41 41 41 42 43 43 43 43 43 43 42 42 42 43
16 17 18 19 19 19 22 24 24 25 26 27 28 29 29 30 31 31 31 32 33 34 34 36 36 37 38 39 40 40 40 40 40 41 41 41 41 42 42 42 42 42 42 42
14 15 16 17 18 20 21 22 23 24 26 27 27 28 28 27 27 27 28 29 31 32 33 34 35 35 36 37 38 38 38 39 40 40 40 40 40 41 41 41 42 41 41 41
13 14 15 17 19 20 20 21 22 23 24 26 26 27 27 27 26 26 26 27 29 30 32 33 33 33 34 34 35 36 36 37 37 38 38 39 39 40 40 41 41 41 41 41
13 14 15 16 17 18 19 21 21 22 23 24 24 25 26 27 27 26 26 26 27 28 30 31 32 33 33 33 34 35 36 36 36 37 37 38 38 38 39 39 40 40 40 40
13 14 15 16 16 17 18 20 21 21 22 23 24 24 25 26 26 26 26 27 27 28 29 30 31 32 33 33 33 34 34 35 36 36 36 37 37 37 38 38 39 39 39 39
13 14 15 16 17 16 17 18 20 20 20 21 22 23 24 24 25 26 26 26 26 26 28 29 29 30 31 32 33 33 34 35 35 36 36 37 37 37 37 38 39 39 39 39
13 14 14 15 17 17 16 17 18 19 20 21 21 22 23 24 24 25 25 26 25 25 25 26 27 28 29 30 32 32 33 34 34 35 35 35 36 36 37 38 38 38 38 38
13 14 14 15 15 16 16 16 17 18 19 20 21 22 23 24 24 25 25 25 26 25 25 26 26 27 28 29 30 31 31 32 33 34 34 35 35 35 36 36 36 37 37 37
13 14 14 15 15 16 15 16 16 17 18 20 21 22 23 23 24 24 24 25 25 25 25 26 26 26 27 28 29 30 31 31 32 33 34 34 34 35 35 35 36 36 37 37
13 13 14 15 15 16 16 16 17 17 18 19 20 21 22 22 22 23 24 24 24 25 26 26 26 26 27 27 28 28 29 30 31 32 33 33 34 34 34 34 35 35 36 36
13 13 14 14 15 16 16 17 17 18 18 18 19 20 20 21 22 23 23 24 24 24 26 26 27 27 27 28 28 29 29 30 30 31 32 32 33 33 33 34 34 34 35 35
14 14 14 15 15 16 16 17 18 19 19 19 19 20 20 20 21 22 24 24 25 25 25 26 26 27 27 28 29 29 29 29 30 31 32 32 33 33 34 34 34 35 35 36
15 15 14 15 15 16 17 17 18 18 19 19 20 20 21 21 21 22 23 24 24 25 25 26 26 27 27 27 28 28 29 29 30 31 31 32 33 34 34 34 34 34 35 35
15 15 16 16 17 17 18 18 18 19 20 20 21 22 22 22 22 23 23 24 25 25 25 26 26 26 27 27 28 28 29 29 29 30 31 32 32 33 33 33 34 34 35 35
14 15 17 18 18 18 18 19 19 19 20 20 21 22 22 22 22 23 24 24 25 25 26 26 27 27 27 28 28 28 28 28 29 30 30 31 31 32 32 32 33 34 34 35
15 15 16 17 18 19 19 19 19 19 19 20 20 21 22 22 22 23 24 24 24 25 25 26 27 27 27 27 28 28 28 28 29 29 29 29 30 30 30 31 31 32 33 33
15 15 15 16 17 17 18 18 19 19 19 19 20 20 20 21 22 22 23 23 24 24 24 25 26 26 27 27 28 28 29 29 28 28 28 28 28 29 29 30 30 31 32 32
14 14 14 15 16 16 17 17 18 18 18 19 19 20 20 20 21 21 21 21 22 23 24 25 26 26 27 27 28 28 28 28 28 28 27 28 28 29 29 30 31 31 32 32
15 15 14 15 15 15 16 16 16 17 18 19 19 19 19 19 20 20 21 21 22 22 23 24 25 26 26 26 26 27 27 27 27 28 29 29 29 30 30 31 31 31 32 32
16 15 15 15 15 15 15 15 16 16 17 17 18 19 20 20 20 21 21 22 23 23 24 24 25 25 25 26 26 26 27 27 28 28 29 29 29 30 30 31 31 32 32 32
16 16 16 16 16 16 16 16 16 16 17 17 18 19 20 21 21 22 22 23 24 24 25 24 24 25 25 26 26 26 26 27 27 28 28 29 30 30 30 31 31 32 32 32

GEFSNGP_500_meanwind_246.txt.gz
Wind_Speed
14 16 19 21 23 25 26 27 27 26 27 28 29 30 32 34 35 37 39 39 40 41 43 43 42 42 43 43 43 43 44 44 44 44 44 44 43 43 42 42 42 42 43 43
13 15 18 20 22 24 25 25 27 27 28 29 30 30 31 33 34 35 37 38 40 40 40 41 42 42 42 43 43 43 43 44 43 44 44 44 44 44 44 43 42 42 43 43
15 15 18 20 21 23 25 25 25 27 28 29 30 31 31 33 34 34 35 37 39 41 40 40 41 42 42 42 43 44 43 43 43 44 44 45 45 45 45 45 44 44 43 44
15 16 19 19 20 22 23 24 25 26 28 29 29 29 30 32 34 35 35 36 37 38 39 39 40 41 41 42 42 43 44 44 44 43 43 44 45 46 46 46 46 46 45 44
15 16 17 18 20 22 23 23 24 25 27 28 28 29 29 30 31 33 33 34 35 36 37 38 39 40 40 40 41 42 43 43 43 44 44 44 44 45 45 46 46 46 45 45
14 15 15 17 19 21 23 24 24 24 25 26 27 27 27 28 30 30 31 32 34 35 36 36 38 39 40 40 40 40 41 42 42 43 44 45 45 45 45 45 45 45 46 46
12 14 14 16 17 18 21 22 23 23 24 25 26 25 25 25 27 29 31 32 33 34 35 35 36 37 38 39 39 40 40 40 41 43 44 45 45 45 45 45 44 44 45 45
10 12 13 14 15 16 18 20 22 23 24 25 26 26 26 26 27 28 29 30 32 33 34 35 35 35 36 36 37 38 38 39 39 40 41 43 43 43 43 43 43 43 44 44
10 11 12 14 15 16 17 18 21 23 23 25 26 26 26 27 27 27 27 28 30 31 32 34 34 35 35 35 35 35 36 37 38 39 39 40 41 41 41 41 42 42 43 43
10 11 12 14 15 16 17 18 19 21 22 23 24 26 27 27 27 27 27 27 28 29 30 31 33 34 35 35 35 35 35 35 37 38 38 39 39 40 40 40 41 42 42 42
11 11 12 14 15 16 17 18 19 20 21 22 23 23 25 26 27 27 27 27 27 27 28 30 31 33 34 35 35 35 34 34 35 36 37 37 38 38 39 40 41 41 41 41
11 11 12 13 14 15 16 17 18 19 20 22 23 23 22 23 23 24 25 26 27 27 27 27 29 31 33 34 34 35 35 34 34 35 35 36 37 38 38 39 40 41 41 41
11 12 12 13 14 16 16 17 18 19 19 20 22 23 22 22 23 24 24 25 26 27 27 27 28 29 31 32 33 33 34 34 34 34 35 36 36 37 38 39 39 40 40 40
12 12 12 13 14 16 17 17 18 18 19 19 20 22 23 23 23 24 24 25 25 26 26 26 26 27 28 29 31 32 32 33 33 34 33 34 34 36 37 37 37 38 38 39
13 13 13 13 14 15 17 17 18 18 19 19 20 20 21 22 23 23 24 24 25 26 26 27 27 27 28 28 29 30 31 32 33 34 34 34 34 34 35 36 36 36 37 37
14 14 14 14 14 15 16 17 17 18 19 19 20 20 20 21 21 22 23 24 24 25 26 27 27 28 28 29 29 29 30 31 32 32 33 33 34 34 34 35 35 36 36 37
14 15 15 15 15 15 15 16 16 17 18 18 19 20 20 21 21 21 22 23 23 24 25 26 27 27 27 28 28 28 29 30 31 32 32 33 33 34 34 34 35 35 36 37
14 15 15 15 15 15 15 15 16 17 18 18 19 20 20 21 22 22 22 23 23 23 23 24 25 26 27 28 28 29 29 29 30 31 32 33 34 34 34 35 35 36 36 37
14 14 14 15 15 15 15 15 16 17 18 18 19 19 20 20 21 22 22 23 23 23 23 24 25 26 27 28 28 29 29 30 30 31 31 32 33 34 34 35 36 36 37 38
13 13 13 14 15 15 15 16 16 17 18 18 18 19 20 20 21 21 22 23 23 23 23 24 25 26 26 27 27 28 28 29 29 30 30 31 31 32 33 34 34 35 36 36
13 13 13 13 14 14 15 16 16 16 17 17 18 18 19 19 20 20 20 21 22 23 24 24 24 25 25 26 27 27 27 28 28 29 30 30 30 31 31 32 32 33 33 34
13 14 13 13 13 14 15 15 16 16 17 17 17 17 18 19 19 19 20 20 21 21 22 23 23 24 24 25 26 26 27 28 29 29 29 29 30 29 30 30 31 31 32 33
14 14 14 14 14 14 14 15 15 16 17 18 18 18 18 18 19 19 20 21 21 21 21 22 22 23 24 24 25 26 26 27 27 28 28 28 29 29 29 30 30 31 31 32
15 15 14 14 14 14 14 14 15 15 16 17 17 18 18 19 19 19 20 20 21 21 22 22 23 23 24 24 25 25 26 26 26 26 26 27 28 28 29 29 30 30 30 31
16 15 15 14 14 14 15 15 15 15 15 16 17 17 18 18 19 20 20 20 20 21 21 21 22 23 23 24 25 25 25 25 25 25 26 26 27 27 28 28 29 29 30 30
16 16 15 15 14 14 14 14 14 14 15 15 16 16 16 16 18 19 20 20 21 21 21 22 22 22 23 24 24 24 24 25 25 25 26 26 27 28 28 28 28 29 29 29
17 17 16 16 16 15 15 15 15 14 15 15 16 17 17 17 17 18 19 20 21 22 23 23 23 23 23 23 24 24 24 25 26 26 26 27 27 27 28 28 28 29 29 29

GEFSNGP_500_meanwind_252.txt.gz
Wind_Speed
16 17 18 20 21 23 24 26 26 25 26 28 32 34 35 35 36 37 39 40 41 42 43 44 45 46 47 48 48 48 48 47 47 47 47 47 46 46 46 46 46 46 46 45
17 18 19 19 20 20 23 25 26 25 25 27 29 31 33 34 36 37 38 38 39 40 42 43 44 45 46 47 47 48 48 48 48 48 48 47 47 46 46 47 46 47 46 46
18 20 20 20 20 20 20 23 25 25 24 25 27 28 31 33 34 36 38 38 37 38 40 42 43 44 45 46 47 47 47 47 48 48 49 48 48 47 47 46 46 46 46 46
16 18 19 18 21 22 21 22 24 24 26 26 26 28 29 31 33 34 36 38 38 39 39 40 42 43 44 45 45 47 48 48 48 48 48 49 49 48 48 49 47 46 46 47
16 16 17 18 19 20 22 23 24 24 25 25 26 28 29 31 32 33 34 36 38 38 39 39 40 42 43 44 45 45 46 47 47 47 48 48 48 48 48 49 49 47 47 47
16 16 16 16 17 18 19 21 23 24 24 25 26 27 29 31 31 32 33 34 36 38 39 39 39 40 41 42 43 43 44 45 45 46 47 47 47 48 48 48 48 49 48 47
16 16 15 15 16 16 17 19 21 23 24 26 26 26 27 29 30 30 32 33 35 37 38 39 39 40 40 40 41 42 42 42 43 44 45 46 47 47 48 48 48 48 48 47
15 15 15 15 15 16 17 17 19 21 22 24 25 26 27 27 29 30 31 32 34 34 35 37 39 40 40 40 41 41 41 42 42 42 42 44 45 45 46 47 47 47 47 47
15 15 15 15 16 17 18 18 19 19 20 21 23 25 26 27 28 29 30 31 31 32 33 35 36 38 39 40 40 40 40 41 42 42 41 41 41 42 43 44 45 46 46 46
15 15 15 16 16 18 19 20 20 20 20 21 22 24 26 28 28 29 30 30 31 31 32 33 35 36 38 39 40 40 40 40 40 40 40 40 40 40 41 42 43 43 44 45
16 15 15 16 17 18 19 20 21 21 20 21 22 23 24 26 28 29 30 30 30 30 31 31 33 34 35 37 39 39 39 39 39 40 40 39 39 39 39 40 41 41 41 42
18 17 17 17 18 18 20 20 21 21 21 21 22 23 24 25 25 27 28 30 30 31 30 30 31 32 33 35 36 38 38 38 38 38 39 39 39 39 39 39 40 41 41 41
18 18 18 18 18 19 20 20 21 21 21 22 23 23 23 24 24 25 25 27 28 29 29 30 30 31 32 33 34 36 37 37 37 37 38 38 38 38 38 38 39 39 40 41
19 19 19 18 19 19 20 21 21 21 22 22 23 23 24 24 24 24 24 25 26 27 28 29 29 30 31 31 32 34 35 36 37 37 37 38 38 38 38 38 38 38 39 40
20 20 20 20 20 20 20 21 21 22 22 22 23 23 23 24 25 24 24 24 24 25 26 27 28 30 31 31 32 32 34 35 36 36 36 37 37 37 37 38 38 38 38 39
19 20 20 20 20 21 21 21 21 22 22 23 23 23 24 24 25 25 25 24 25 25 25 26 27 27 29 31 32 32 32 33 34 35 35 35 36 36 37 37 37 37 37 38
18 19 19 19 20 20 21 22 22 22 22 23 23 23 23 23 24 25 25 24 24 25 26 26 26 26 27 29 30 31 31 31 32 33 34 34 34 35 35 36 36 36 36 37
18 18 18 19 19 20 20 20 21 21 22 22 23 23 23 23 23 24 25 25 24 24 25 25 25 25 26 26 27 28 29 30 31 31 32 33 33 34 35 35 36 36 36 36
17 17 18 18 18 18 19 19 19 19 20 21 21 22 22 22 22 23 24 24 24 24 24 25 25 25 25 25 26 26 27 28 30 30 31 32 33 33 34 35 35 35 36 35
17 17 18 18 17 17 17 18 18 19 19 20 20 21 21 21 21 22 22 23 23 23 24 25 25 25 25 26 26 26 27 27 28 30 31 32 33 33 33 33 33 34 34 35
18 18 18 18 18 17 16 17 17 17 18 18 19 20 20 21 21 21 21 22 22 23 23 24 25 25 26 26 26 27 27 28 28 29 30 31 31 32 32 32 32 32 32 33
19 19 19 19 18 17 17 17 17 17 18 18 19 19 20 20 20 21 21 21 21 22 22 22 23 24 25 26 26 26 27 28 28 28 29 30 31 31 31 31 31 31 32 32
19 19 19 18 18 17 17 17 17 17 17 18 18 19 19 20 20 21 22 22 22 22 22 23 23 23 24 25 25 25 26 27 28 28 28 28 29 30 31 31 31 31 31 31
18 18 18 18 18 18 17 17 17 17 18 18 18 19 19 20 20 21 21 22 22 22 22 23 23 23 24 24 25 25 26 26 26 27 27 28 28 28 29 29 30 30 30 30
18 18 18 18 19 19 19 18 18 17 18 18 18 19 19 19 20 20 21 22 22 22 22 23 23 24 24 24 24 24 25 25 26 27 27 27 27 28 28 28 29 29 30 30
19 19 18 19 19 19 19 19 18 18 18 18 19 19 19 19 20 20 21 21 22 22 22 23 23 24 24 25 25 25 25 25 25 25 25 26 26 26 27 28 28 29 29 29
20 19 19 19 19 19 19 19 18 18 18 19 19 19 19 19 20 20 20 20 21 21 21 22 22 22 23 23 24 24 24 24 24 24 23 24 24 25 26 27 28 28 29 29